     2              OBSERVATION DATA    GPS                 RINEX VERSION / TYPE
teqc 2000Jul20 Karen Wendt 20031231 22:49:03UTC             PGM / RUN BY / DATE
                                                            COMMENT
L2: 1 -> 1; 150 -> 5; 250 -> 9                              COMMENT
L2: 1 -> 1; 150 -> 5; 250 -> 9                              COMMENT
L2: 1 -> 1; 150 -> 5; 250 -> 9                              COMMENT
L2: 1 -> 1; 150 -> 5; 250 -> 9                              COMMENT
L2: 1 -> 1; 150 -> 5; 250 -> 9                              COMMENT
L2: 1 -> 1; 150 -> 5; 250 -> 9                              COMMENT
L2: 1 -> 1; 150 -> 5; 250 -> 9                              COMMENT
L2: 1 -> 1; 150 -> 5; 250 -> 9                              COMMENT
L2: 1 -> 1; 150 -> 5; 250 -> 9                              COMMENT
L2: 1 -> 1; 150 -> 5; 250 -> 9                              COMMENT
L2: 1 -> 1; 150 -> 5; 250 -> 9                              COMMENT
L2: 1 -> 1; 150 -> 5; 250 -> 9                              COMMENT
L2: 1 -> 1; 150 -> 5; 250 -> 9                              COMMENT
L2: 1 -> 1; 150 -> 5; 250 -> 9                              COMMENT
Original Marker Name: 2068 2068_smtpd_SLO_046_PM00.33       COMMENT
Campaign Name: USGS San Simeon 2003-2004                    COMMENT
4-Character Station Name: 2068                              COMMENT
6-Character Antenna Code: DMRCHT                            COMMENT
Vertical Measurement Point: BCR                             COMMENT
Vertical Offset to Rinex Ref. Point: 0.0348                 COMMENT
Radial Measurement Point: ECF                               COMMENT
Radial Offset to Rinex Ref. Point: 0.1897                   COMMENT
Antenna Height from Field Measurement: 1.5030 m             COMMENT
Additional Antenna Identification Info.:                    COMMENT
Turborogue and Ashtech Choke Ring                           COMMENT
Tripod sunk in asphalt. End height 1.497m.                  COMMENT
Original XYZ: -2679703.5619 -4452323.1252 3685840.2281      COMMENT
New XYZ position is based on association with SCEC monument COMMENT
E1F0J5C2+0011. Position of that monument is believed to be  COMMENT
valid to within 1 m horizontally; vertical accuracy         COMMENT
should be no worse than 3-times this value.                 COMMENT
                                                            COMMENT
Revised Rinex header created by UCSD GPS archive for        COMMENT
GSAC on 20-Apr-2005 (2005:110) 16:27:07 GMT                 COMMENT
For assistance contact dagnew@ucsd.edu                      COMMENT
or anderson@python.ucsd.edu                                 COMMENT
                                                            COMMENT
SLO 046 PM00.33                                             MARKER NAME
CHS US GEOLOGICAL SURVEY                                    OBSERVER / AGENCY
ZE1200331018 ASHTECH UZ-12 ZE00                             REC # / TYPE / VERS
CR14330 DORNE-MARGOL. TYPE T                                ANT # / TYPE
 -2679720.0000 -4452299.0000  3685834.0000                  APPROX POSITION XYZ
        1.4562        0.0000        0.0000                  ANTENNA: DELTA H/E/N
     1     1     0                                          WAVELENGTH FACT L1/2
     5    C1    L1    L2    P1    P2                        # / TYPES OF OBSERV
    30                                                      INTERVAL
  2003    12    23    21    50   30.000000                  TIME OF FIRST OBS
  2003    12    23    23    59   30.000000                  TIME OF LAST OBS
                                                            END OF HEADER
 03 12 23 21 50 30.0000000  0  2G24G 4
  20410165.311     -190631.24053   -135343.85552  20410166.755    20410166.783
  19464529.834      -30166.43854    -22177.19352  19464532.083    19464530.322
 03 12 23 21 51  0.0000000  0  3G 5G24G 4
  21369038.388     -267087.22153   -192900.85352  21369039.874    21369040.756
  20393323.686     -279133.48943   -204306.58542  20393325.249    20393325.307
  19462215.493      -42326.96344    -31652.91342  19462217.877    19462216.314
 03 12 23 21 51 30.0010000  0  5G 5G24G 7G 4G 9
  21651774.464     -356716.62343   -262741.87042  21651776.188    21651777.290
  20676390.728     -367025.81243   -272794.04542  20676392.313    20676392.386
  21587593.092      143806.61853    104373.44352  21587594.779    21587594.882
  19759852.805      -53651.68044    -40477.35242  19759855.184    19759853.856
  19919717.897        1159.42154       971.89152  19919719.951    19919718.857
 03 12 23 21 52  0.0010000  0  5G 5G24G 7G 4G 9
  22819054.572     5777380.50643   4517074.15642  22819056.129    22819057.209
  21844056.989     5769102.32143   4508604.54542  21844058.695    21844058.793
  22782806.332     6424694.04343   4998571.40342  22782807.897    22782808.015
  20942130.111     6159257.35744   4800750.49642  20942132.486    20942131.229
  21104356.443     6226477.60944   4851869.17042  21104358.624    21104357.472
 03 12 23 21 52 30.0010000  0  6G 5G24G 7G17G 4G 9
  22803841.976     5697436.91343   4454780.50342  22803843.579    22803844.423
  21829286.926     5691485.07343   4448123.60742  21829288.745    21829288.763
  22795521.919     6491515.12743   5050639.74942  22795523.553    22795523.901
  24648566.319     -383416.07453   -277147.22252  24648568.744    24648569.130
  20942014.973     6158651.95444   4800278.77942  20942017.358    20942016.050
  21106599.395     6238264.14044   4861053.46442  21106601.533    21106600.357
 03 12 23 21 53  0.0010000  0  6G 5G24G 7G17G 4G 9
  22788651.775     5617612.25143   4392579.54042  22788653.505    22788654.291
  21814595.796     5614282.45343   4387965.76242  21814597.731    21814597.655
  22808251.251     6558408.10043   5102764.11042  22808252.790    22808253.455
  24628942.149     -486539.09143   -357502.65142  24628944.911    24628945.234
  20942020.236     6158679.58344   4800300.33642  20942022.683    20942021.317
  21108959.135     6250664.87844   4870716.36542  21108961.315    21108960.233
 03 12 23 21 53 30.0010000  0  6G 5G24G 7G17G 4G 9
  22773483.900     5537904.82143   4330469.92642  22773485.607    22773486.462
  21799983.422     5537493.74543   4328130.42942  21799985.455    21799985.308
  22820993.436     6625368.91043   5154941.34342  22820994.990    22820995.896
  24609328.812     -589606.60743   -437814.81442  24609331.624    24609332.393
  20942145.348     6159337.17744   4800812.77042  20942147.823    20942146.450
  21111435.082     6263676.21644   4880855.05842  21111437.306    21111436.318
 03 12 23 21 54  0.0010000  0  6G 5G24G 7G17G 4G 9
  22758338.463     5458315.09543   4268452.02142  22758340.191    22758341.121
  21785449.959     5461119.98843   4268618.42642  21785452.111    21785451.910
  22833748.091     6692395.33943   5207169.70242  22833749.596    22833750.713
  24589726.269     -692617.57343   -518082.87442  24589728.945    24589730.404
  20942389.939     6160622.98144   4801814.71242  20942392.479    20942391.121
  21114026.880     6277296.29444   4891468.10142  21114029.121    21114028.153
 03 12 23 21 54 30.0010000  0  6G 5G24G 7G17G 4G 9
  22743213.175     5378831.88243   4206517.10542  22743214.990    22743215.983
  21770993.418     5385151.09643   4209421.90142  21770995.682    21770995.632
  22846512.719     6759474.09943   5259438.83242  22846514.173    22846515.435
  24570132.393     -795582.55943   -598315.11142  24570135.268    24570137.109
  20942751.742     6162524.38044   4803296.32942  20942754.256    20942752.914
  21116732.038     6291511.96244   4902545.23442  21116734.288    21116733.301
 03 12 23 21 55  0.0010000  0  6G 5G24G 7G17G 4G 9
  22728111.090     5299470.09943   4144676.82642  22728112.930    22728114.055
  21756617.074     5309602.76143   4150553.06442  21756619.291    21756619.347
  22859289.755     6826617.91243   5311758.63842  22859291.196    22859292.542
  24550550.486     -898485.35543   -678498.87042  24550553.318    24550555.524
  20943233.236     6165054.59544   4805267.94042  20943235.730    20943234.386
  21119553.061     6306336.45744   4914096.79142  21119555.306    21119554.242
 03 12 23 21 55 30.0010000  0  6G 5G24G 7G17G 4G 9
  22713030.656     5220222.50743   4082925.50442  22713032.469    22713033.792
  21742319.554     5234468.72043   4092007.06542  21742321.735    21742321.919
  22872077.654     6893817.49443   5364121.90842  22872078.935    22872080.268
  24530978.948    -1001332.50143   -758639.25542  24530981.943    24530984.256
  20943832.676     6168204.58844   4807722.48842  20943835.197    20943833.800
  21122488.136     6321760.40244   4926115.43742  21122490.367    21122489.260
 03 12 23 21 56  0.0010000  0  6G 5G24G 7G17G 4G 9
  22697972.321     5141090.50743   4021264.26642  22697974.056    22697975.578
  21728101.342     5159750.99843   4033785.46642  21728103.475    21728103.659
  22884875.789     6961071.92843   5416527.93442  22884877.100    22884878.433
  24511418.628    -1104121.64343   -838734.43642  24511421.528    24511423.793
  20944550.014     6171974.08044   4810659.75842  20944552.554    20944551.185
  21125537.176     6337783.14344   4938600.68442  21125539.406    21125538.251
 03 12 23 21 56 30.0010000  0  6G 5G24G 7G17G 4G 9
  22682936.783     5062077.69443   3959695.88742  22682938.486    22682940.012
  21713963.078     5085454.10443   3975891.80042  21713965.301    21713965.432
  22897684.569     7028382.27443   5468977.53142  22897685.900    22897687.281
  24491870.028    -1206848.33343   -918780.96542  24491872.848    24491875.282
  20945385.434     6176364.72544   4814081.04342  20945388.060    20945386.776
  21128700.423     6354406.22944   4951553.74042  21128702.686    21128701.540
 03 12 23 21 57  0.0010000  0  6G 5G24G 7G17G 4G 9
  22667924.488     4983187.14943   3898222.79742  22667926.255    22667927.738
  21699905.676     5011581.94043   3918329.09542  21699907.924    21699908.007
  22910504.263     7095749.55943   5521471.49542  22910505.598    22910506.857
  24472334.002    -1309508.61643   -998775.74142  24472336.843    24472339.544
  20946339.385     6181377.89044   4817987.40442  20946341.974    20946340.782
  21131978.151     6371630.91544   4964975.57042  21131980.436    21131979.312
 03 12 23 21 57 30.0010000  0  6G 5G24G 7G17G 4G 9
  22652935.089     4904416.88343   3836843.42042  22652936.933    22652938.332
  21685928.656     4938132.58543   3861095.86142  21685930.948    21685931.050
  22923333.815     7163169.23243   5574006.27942  22923335.247    22923336.239
  24452810.670    -1412103.96843  -1078719.92942  24452813.225    24452816.185
  20947410.968     6187009.21944   4822375.45742  20947413.530    20947412.348
  21135369.553     6389452.73544   4978862.69442  21135371.842    21135370.669
 03 12 23 21 58  0.0010000  0  6G 5G24G 7G17G 4G 9
  22637969.026     4825769.65543   3775559.92942  22637970.928    22637972.335
  21672032.864     4865110.08643   3804195.25042  21672035.144    21672035.344
  22936173.452     7230641.83743   5626582.30942  22936174.905    22936175.642
  24433300.131    -1514630.84643  -1158610.77042  24433302.677    24433305.887
  20948600.429     6193259.69644   4827245.96042  20948602.957    20948601.752
  21138874.657     6407872.22144   4993215.54242  21138876.912    21138875.729
 03 12 23 21 58 30.0010000  0  6G 5G24G 7G17G 4G 9
  22623026.757     4747247.22643   3714373.67042  22623028.645    22623029.946
  21658218.704     4792516.68943   3747629.00842  21658220.995    21658221.281
  22949023.111     7298166.65043   5679199.02742  22949024.534    22949025.092
  24413803.204    -1617086.93843  -1238446.45542  24413805.585    24413809.136
  20949907.675     6200129.02444   4832598.68542  20949910.178    20949908.976
  21142493.349     6426888.69544   5008033.57942  21142495.585    21142494.395
 03 12 23 21 59  0.0010000  0  6G 5G24G 7G17G 4G 9
  22608108.654     4668852.54543   3653286.96742  22608110.585    22608111.859
  21644486.981     4720355.95943   3691399.92742  21644489.187    21644489.561
  22961882.795     7365744.63943   5731857.16842  22961884.262    22961884.757
  24394320.396    -1719468.05443  -1318223.72342  24394322.786    24394326.688
  20951332.818     6207618.24944   4838434.43942  20951335.340    20951334.186
  21146225.828     6446503.17644   5023317.59942  21146228.060    21146226.836
 03 12 23 21 59 30.0010000  0  6G 5G24G 7G17G 4G 9
  22593215.116     4590586.22243   3592300.29542  22593216.977    22593218.236
  21630837.847     4648629.61643   3635509.33042  21630840.070    21630840.481
  22974752.205     7433374.37543   5784555.65042  22974753.728    22974754.286
  24374852.486    -1821772.70243  -1397941.42142  24374854.602    24374858.529
  20952875.736     6215726.15444   4844752.28442  20952878.250    20952877.118
  21150071.807     6466714.16644   5039066.41842  21150074.015    21150072.789
 03 12 23 22  0  0.0010000  0  6G 5G24G 7G17G 4G 9
  22578345.618     4512446.88943   3531412.56342  22578347.486    22578348.709
  21617271.180     4577336.49443   3579956.31742  21617273.363    21617273.771
  22987630.738     7501051.83843   5837291.32142  22987632.295    22987633.012
  24355398.935    -1924001.86243  -1477600.31942  24355400.921    24355404.570
  20954535.505     6224448.79644   4851549.14842  20954538.084    20954537.002
  21154030.435     6487517.32144   5055276.67142  21154032.637    21154031.482
 03 12 23 22  0 30.0010000  0  6G 5G24G 7G17G 4G 9
  22563500.708     4434436.91443   3470625.63342  22563502.571    22563503.857
  21603787.415     4506479.67143   3524743.26842  21603789.669    21603790.007
  23000518.587     7568777.20743   5890064.30242  23000519.925    23000520.841
  24335960.056    -2026152.30843  -1557197.87642  24335961.885    24335965.657
  20956312.504     6233786.74044   4858825.46842  20956315.033    20956313.948
  21158101.878     6508913.02044   5071948.64642  21158104.010    21158102.978
 03 12 23 22  1  0.0010000  0  6G 5G24G 7G17G 4G 9
  22548681.880     4356564.52343   3409945.91542  22548683.747    22548685.159
  21590388.442     4436067.66643   3469876.84242  21590390.630    21590390.893
  23013416.417     7636556.50843   5942879.32242  23013417.889    23013418.818
  24316537.922    -2128214.78743  -1636726.90142  24316539.652    24316543.359
  20958207.660     6243746.08044   4866585.98842  20958210.205    20958209.149
  21162287.262     6530907.31444   5089087.05442  21162289.347    21162288.447
 03 12 23 22  1 30.0010000  0  6G 5G24G 7G17G 4G 9
  22533888.252     4278824.05743   3349369.00642  22533890.027    22533891.644
  21577073.073     4366095.29944   3415352.98042  21577075.273    21577075.421
  23026323.262     7704381.53743   5995729.96042  23026324.626    23026325.588
  24297131.677    -2230194.87343  -1716191.75942  24297133.196    24297136.721
  20960219.525     6254318.49144   4874824.21542  20960222.011    20960221.045
  21166585.006     6553491.65344   5106685.23842  21166587.035    21166586.202
 03 12 23 22  2  0.0010000  0  6G 5G24G 7G17G 4G 9
  22519120.048     4201216.55443   3288895.70242  22519121.723    22519123.370
  21563841.809     4296564.71244   3361173.36042  21563844.023    21563844.034
  23039238.433     7772251.37843   6048615.50942  23039239.798    23039240.885
  24277741.778    -2332090.13143  -1795590.51742  24277742.988    24277746.431
  20962347.932     6265503.40044   4883539.71142  20962350.362    20962349.537
  21170994.722     6576664.90144   5124742.31542  21170996.825    21170996.014
 03 12 23 22  2 30.0010000  0  6G 5G24G 7G17G 4G 9
  22504378.761     4123750.50643   3228532.63642  22504380.385    22504381.990
  21550696.246     4227484.34544   3307344.55542  21550698.433    21550698.334
  23052163.155     7840171.99643   6101540.63542  23052164.665    23052165.875
  24258369.485    -2433891.68143  -1874916.27042  24258370.877    24258374.076
  20964594.130     6277306.72744   4892737.08542  20964596.509    20964595.706
  21175517.591     6600432.75344   5143262.71642  21175519.717    21175518.951
 03 12 23 22  3  0.0010000  0  6G 5G24G 7G17G 4G 9
  22489662.943     4046418.52243   3168274.03742  22489664.606    22489666.084
  21537635.091     4158847.56044   3253861.39042  21537637.277    21537637.104
  23065096.032     7908133.71443   6154497.78742  23065097.370    23065098.605
  24239013.969    -2535606.02043  -1954174.08742  24239015.318    24239018.182
  20966955.998     6289718.69744   4902408.73342  20966958.517    20966957.623
  21180151.761     6624785.63044   5162238.98042  21180153.894    21180153.153
 03 12 23 22  3 30.0010000  0  6G 5G24G 7G17G 4G 9
  22474974.083     3969227.85143   3108125.54342  22474975.863    22474977.114
  21524659.874     4090661.81544   3200729.68642  21524662.020    21524661.786
  23078037.561     7976141.57943   6207490.92042  23078038.966    23078040.076
  24219676.220    -2637225.16343  -2033357.75242  24219677.695    24219680.458
  20969434.792     6302744.39044   4912558.59942  20969437.307    20969436.321
  21184898.153     6649728.10744   5181674.67642  21184900.286    21184899.520
 03 12 23 22  4  0.0010000  0  6G 5G24G 7G17G 4G 9
  22460312.817     3892182.89443   3048090.59142  22460314.738    22460315.863
  21511771.332     4022931.98744   3147953.23942  21511773.529    21511773.208
  23090988.382     8044197.92843   6260521.79642  23090989.758    23090990.762
  24200357.548    -2738744.06243  -2112463.30242  24200359.042    24200361.936
  20972030.723     6316385.84844   4923188.28142  20972033.222    20972032.209
  21189757.150     6675262.02944   5201571.23442  21189759.322    21189758.425
 03 12 23 22  4 30.0010000  0  6G 5G24G 7G17G 4G 9
  22445678.570     3815280.12943   2988166.44542  22445680.618    22445681.660
  21498968.878     3955654.83544   3095529.52142  21498971.137    21498970.795
  23103947.166     8112296.54943   6313585.63242  23103948.567    23103949.500
  24181057.478    -2840165.70243  -2191493.07542  24181058.908    24181061.748
  20974742.671     6330637.13844   4934293.15942  20974745.153    20974744.162
  21194727.576     6701381.19244   5221923.81342  21194729.711    21194728.735
 03 12 23 22  5  0.0010000  0  6G 5G24G 7G17G 4G 9
  22431071.563     3738520.37643   2928353.73542  22431073.685    22431074.676
  21486252.879     3888831.83444   3043459.68642  21486255.147    21486254.868
  23116913.653     8180436.24543   6366681.48142  23116915.231    23116916.121
  24161776.346    -2941488.46943  -2270445.82842  24161777.860    24161780.538
  20977570.345     6345496.48544   4945871.85742  20977572.838    20977571.801
  21199808.916     6728083.82644   5242731.05342  21199811.079    21199810.119
 03 12 23 22  5 30.0010000  0  6G 5G24G 7G17G 4G 9
  22416493.174     3661910.47743   2868657.77842  22416495.215    22416496.134
  21473624.675     3822470.07244   2991749.26742  21473626.887    21473626.761
  23129889.094     8248621.42843   6419812.77342  23129890.595    23129891.379
  24142515.263    -3042704.80843  -2349315.65942  24142517.091    24142519.606
  20980514.539     6360968.29544   4957927.80442  20980517.030    20980515.942
  21205002.090     6755374.12644   5263996.22042  21205004.286    21205003.380
 03 12 23 22  6  0.0010000  0  6G 5G24G 7G17G 4G 9
  22401942.385     3585445.76043   2809074.94642  22401944.351    22401945.293
  21461083.219     3756565.20044   2940394.85842  21461085.485    21461085.574
  23142871.537     8316845.05643   6472974.02542  23142873.243    23142873.966
  24123273.807    -3143818.97043  -2428105.87442  24123275.688    24123278.184
  20983573.940     6377045.29444   4970455.32042  20983576.406    20983575.251
  21210305.675     6783244.51944   5285713.40642  21210307.896    21210307.041
 03 12 23 22  6 30.0010000  0  6G 5G24G 7G17G 4G 9
  22387420.512     3509133.06043   2749610.55442  22387422.490    22387423.349
  21448630.179     3691124.13444   2889401.85742  21448632.340    21448632.602
  23155862.239     8385111.72043   6526168.80742  23155864.057    23155864.718
  24104053.251    -3244823.13943  -2506810.39042  24104055.259    24104057.902
  20986749.317     6393731.88544   4983457.84742  20986751.777    20986750.593
  21215720.388     6811699.14744   5307885.84442  21215722.660    21215721.797
 03 12 23 22  7  0.0010000  0  6G 5G24G 7G17G 4G 9
  22372927.202     3432970.71143   2690263.33442  22372929.201    22372930.068
  21436265.228     3626145.84844   2838769.45842  21436267.314    21436267.660
  23168860.473     8453417.61243   6579394.15442  23168862.155    23168862.979
  24084853.473    -3345718.49343  -2585430.09542  24084855.492    24084858.349
  20990039.915     6411023.95144   4996932.17642  20990042.385    20990041.197
  21221245.513     6840733.47044   5330509.98442  21221247.741    21221246.809
 03 12 23 22  7 30.0010000  0  6G 5G24G 7G17G 4G 9
  22358462.903     3356959.89743   2631034.17442  22358464.814    22358465.659
  21423988.439     3561631.49444   2788498.57842  21423990.521    21423990.962
  23181865.799     8521761.84543   6632649.38942  23181867.563    23181868.403
  24065675.014    -3446502.78743  -2663963.23842  24065676.828    24065679.794
  20993445.526     6428920.23944   5010877.33642  20993447.990    20993446.714
  21226880.589     6870346.14244   5353584.78442  21226882.828    21226881.846
 03 12 23 22  8  0.0010000  0  6G 5G24G 7G17G 4G 9
  22344028.434     3281106.33943   2571927.56942  22344030.298    22344031.120
  21411801.116     3497586.74144   2738593.61942  21411803.174    21411803.597
  23194879.233     8590147.24543   6685936.70442  23194880.903    23194881.711
  24046518.551    -3547170.36543  -2742405.41742  24046520.417    24046523.428
  20996966.500     6447423.24544   5025295.27042  20996968.980    20996967.634
  21232626.159     6900539.54944   5377112.11442  21232628.359    21232627.380
 03 12 23 22  8 30.0010000  0  6G 5G24G 7G17G 4G 9
  22329623.828     3205410.77243   2512944.05742  22329625.761    22329626.565
  21399703.521     3434013.18144   2689055.82742  21399705.555    21399705.860
  23207900.276     8658572.91043   6739255.39442  23207901.898    23207902.806
  24027384.823    -3647719.04043  -2820754.90642  24027386.825    24027389.684
  21000602.664     6466531.48544   5040184.81842  21000605.174    21000603.704
  21238481.970     6931312.01544   5401090.65142  21238484.115    21238483.224
 03 12 23 22  9  0.0010000  0  6G 5G24G 7G17G 4G 9
  22315248.381     3129868.32243   2454079.85742  22315250.347    22315251.244
  21387694.524     3370905.63744   2639881.16142  21387696.553    21387696.787
  23220927.404     8727030.98843   6792599.33842  23220929.072    23220929.939
  24008272.753    -3748153.89543  -2899015.67142  24008274.897    24008277.623
  21004352.560     6486237.15544   5055539.90042  21004355.079    21004353.528
  21244446.375     6962655.29744   5425513.98742  21244448.585    21244447.709
 03 12 23 22  9 30.0010000  0  6G 5G24G 7G17G 4G 9
  22300904.346     3054490.68543   2395344.09142  22300906.209    22300907.284
  21375776.406     3308275.92644   2591078.84042  21375778.456    21375778.664
  23233962.564     8795531.10143   6845976.04042  23233964.187    23233965.115
  23989184.514    -3848462.58643  -2977178.11042  23989186.853    23989189.510
  21008217.810     6506548.98344   5071367.31042  21008220.373    21008218.754
  21250521.223     6994578.31044   5450389.05842  21250523.400    21250522.521
 03 12 23 22 10  0.0010000  0  6G 5G24G 7G17G 4G 9
  22286590.904     2979273.40843   2336733.27242  22286592.661    22286593.757
  21363948.582     3246120.32744   2542645.95042  21363950.623    21363950.802
  23247004.517     8864066.85943   6899380.50942  23247006.128    23247007.023
  23970119.826    -3948648.24743  -3055244.65542  23970122.191    23970124.832
  21012197.035     6527460.44644   5087661.97442  21012199.648    21012198.060
  21256704.948     7027074.01444   5475710.38042  21256707.164    21256706.279
 03 12 23 22 10 30.0010000  0  6G 5G24G 7G17G 4G 9
  22272308.160     2904217.58643   2278248.26742  22272309.931    22272310.976
  21352211.174     3184439.76744   2494583.22542  21352213.172    21352213.323
  23260052.915     8932637.21443   6952811.95342  23260054.559    23260055.429
  23951078.714    -4048709.32843  -3133214.09942  23951081.202    23951083.768
  21016290.046     6548969.66244   5104422.41142  21016292.595    21016291.108
  21262997.281     7060140.34544   5501476.34242  21262999.467    21262998.587
 03 12 23 22 11  0.0010000  0  6G 5G24G 7G17G 4G 9
  22258056.796     2829326.07543   2219891.32542  22258058.498    22258059.586
  21340564.673     3123237.24244   2446893.00642  21340566.692    21340566.814
  23273108.053     9001242.44043   7006270.57442  23273109.624    23273110.609
  23932062.081    -4148642.62543  -3211083.97342  23932064.560    23932066.872
  21020496.783     6571076.55144   5121648.57242  21020499.301    21020497.866
  21269398.121     7093777.03644   5527686.74642  21269400.304    21269399.424
 03 12 23 22 11 30.0010000  0  6G 5G24G 7G17G 4G 9
  22243837.908     2754605.04943   2161667.22042  22243839.600    22243840.581
  21329010.292     3062518.66344   2399579.87542  21329012.351    21329012.361
  23286170.585     9069886.36243   7059759.34342  23286172.067    23286173.082
  23913070.662    -4248441.56043  -3288849.13142  23913073.352    23913075.467
  21024817.919     6593784.38444   5139343.00642  21024820.408    21024818.991
  21275908.124     7127987.17744   5554343.98842  21275910.290    21275909.397
 03 12 23 22 12  0.0010000  0  6G 5G24G 7G17G 4G 9
  22229650.907     2680051.61743   2103573.70342  22229652.650    22229653.527
  21317547.408     3002281.06643   2352641.53642  21317549.478    21317549.465
  23299239.235     9138563.75743   7113274.19942  23299240.869    23299241.840
  23894104.397    -4348108.28943  -3366511.28842  23894107.179    23894109.231
  21029252.295     6617087.32144   5157501.15342  21029254.812    21029253.460
  21282526.111     7162764.57944   5581443.25742  21282528.300    21282527.373
 03 12 23 22 12 30.0010000  0  6G 5G24G 7G17G 4G 9
  22215496.020     2605667.13443   2045611.84742  22215497.838    22215498.637
  21306176.345     2942526.23943   2306079.37642  21306178.413    21306178.460
  23312314.416     9207273.88343   7166814.55742  23312315.920    23312316.874
  23875163.633    -4447641.05743  -3444069.06542  23875166.357    23875168.403
  21033799.698     6640983.99744   5176121.95642  21033802.212    21033800.928
  21289251.697     7198107.58744   5608983.26042  21289253.876    21289252.968
 03 12 23 22 13  0.0010000  0  6G 5G24G 7G17G 4G 9
  22201373.869     2531455.11843   1987784.37742  22201375.763    22201376.470
  21294897.871     2883257.60844   2259896.06342  21294899.904    21294900.035
  23325395.886     9276017.91343   7220381.32642  23325397.466    23325398.418
  23856249.434    -4547035.62943  -3521519.16442  23856251.958    23856254.013
  21038460.038     6665474.67244   5195205.61042  21038462.589    21038461.384
  21296084.996     7234016.73244   5636964.40142  21296087.237    21296086.236
 03 12 23 22 13 30.0010000  0  6G 5G24G 7G17G 4G 9
  22187284.868     2457416.88143   1930092.32742  22187286.770    22187287.485
  21283712.122     2824476.17343   2214092.38442  21283714.109    21283714.383
  23338483.671     9344794.88043   7273973.76642  23338485.261    23338486.190
  23837361.766    -4646290.21443  -3598860.17342  23837364.306    23837366.323
  21043233.242     6690557.88744   5214750.98342  21043235.725    21043234.572
  21303025.612     7270489.91844   5665385.04642  21303027.899    21303026.846
 03 12 23 22 14  0.0010000  0  6G 5G24G 7G17G 4G 9
  22173229.187     2383554.30543   1872537.15142  22173231.118    22173231.838
  21272619.484     2766184.10144   2168670.03142  21272621.454    21272621.828
  23351577.658     9413604.45443   7327591.61642  23351579.178    23351580.231
  23818501.246    -4745402.25143  -3676090.10842  23818503.797    23818505.706
  21048118.985     6716232.57244   5234757.24342  21048121.445    21048120.272
  21310073.343     7307525.93344   5694244.26442  21310075.619    21310074.564
 03 12 23 22 14 30.0010000  0  6G 5G24G 7G17G 4G 9
  22159206.358     2309863.55443   1815115.87642  22159208.185    22159208.944
  21261619.300     2708377.35144   2123625.84042  21261621.259    21261621.548
  23364676.897     9482440.85043   7381230.36642  23364678.382    23364679.306
  23799667.144    -4844375.01843  -3753211.52942  23799669.722    23799671.560
  21053115.979     6742492.06144   5255219.19442  21053118.447    21053117.259
  21317226.859     7345118.21544   5723536.94742  21317229.138    21317228.144
 03 12 23 22 15  0.0010000  0  6G 5G24G 7G17G 4G 9
  22145218.217     2236355.34643   1757836.84142  22145220.038    22145220.762
  21250713.422     2651066.47844   2078968.05842  21250715.399    21250715.559
  23377782.874     9551312.17643   7434896.32442  23377784.276    23377785.088
  23780861.856    -4943197.31943  -3830215.70942  23780864.283    23780866.030
  21058225.702     6769343.79444   5276142.62942  21058228.208    21058226.944
  21324487.643     7383273.91144   5753268.64742  21324489.873    21324488.943
 03 12 23 22 15 30.0010000  0  6G 5G24G 7G17G 4G 9
  22131264.365     2163027.71743   1700698.52342  22131266.220    22131266.841
  21239901.420     2594249.31844   2034694.99042  21239903.447    21239903.493
  23390894.353     9620213.98943   7488586.02742  23390895.918    23390896.619
  23762084.859    -5041870.75243  -3907103.89142  23762087.198    23762088.792
  21063447.139     6796782.60344   5297523.52342  21063449.636    21063448.406
  21331854.604     7421987.56544   5783435.11542  21331856.837    21331855.871
 03 12 23 22 16  0.0010000  0  6G 5G24G 7G17G 4G 9
  22117345.137     2089882.02843   1643701.97042  22117347.049    22117347.539
  21229183.598     2537927.13444   1990807.61842  21229185.684    21229185.607
  23404011.726     9689145.80443   7542299.11642  23404013.264    23404013.909
  23743336.431    -5140393.32643  -3983874.53442  23743338.804    23743340.268
  21068780.033     6824806.93144   5319360.67142  21068782.496    21068781.281
  21339327.439     7461257.33244   5814034.91342  21339329.622    21339328.607
 03 12 23 22 16 30.0010000  0  6G 5G24G 7G17G 4G 9
  22103461.044     2016921.72943   1586849.87542  22103463.066    22103463.536
  21218560.651     2482103.33644   1947308.60842  21218562.749    21218562.612
  23417134.832     9758108.62443   7596036.36142  23417136.354    23417137.116
  23724617.455    -5238761.19843  -4060524.63842  23724619.805    23724621.260
  21074224.363     6853417.13244   5341654.34142  21074226.847    21074225.672
  21346906.075     7501083.25444   5845068.08242  21346908.220    21346907.219
 03 12 23 22 17  0.0010000  0  6G 5G24G 7G17G 4G 9
  22089611.648     1944144.10443   1530140.11442  22089613.710    22089614.288
  21208031.932     2426774.91944   1904195.61442  21208034.026    21208033.941
  23430262.951     9827097.39743   7649793.82142  23430264.309    23430265.272
  23705927.524    -5336976.60143  -4137055.94042  23705929.758    23705931.113
  21079778.901     6882606.89044   5364399.61242  21079781.390    21079780.302
  21354589.270     7541459.06844   5876529.74342  21354591.409    21354590.440
 03 12 23 22 17 30.0010000  0  6G 5G24G 7G17G 4G 9
  22075798.893     1871557.99343   1473579.57742  22075800.872    22075801.498
  21197599.057     2371950.39844   1861475.26442  21197601.164    21197601.197
  23443397.259     9896118.70443   7703576.63242  23443398.538    23443399.656
  23687268.286    -5435030.06743  -4213461.08342  23687270.465    23687271.870
  21085444.896     6912382.34044   5387601.27142  21085447.382    21085446.350
  21362378.249     7582390.41544   5908424.28142  21362380.393    21362379.442
 03 12 23 22 18  0.0010000  0  6G 5G24G 7G17G 4G 9
  22062021.200     1799156.38143   1417162.80142  22062023.110    22062023.884
  21187260.724     2317622.41244   1819141.82242  21187262.780    21187262.944
  23456535.991     9965163.21943   7757377.53642  23456537.346    23456538.438
  23668638.678    -5532928.50743  -4289745.44142  23668640.785    23668642.270
  21091220.321     6942732.75144   5411250.94742  21091222.776    21091221.811
  21370270.974     7623866.64244   5940743.41042  21370273.153    21370272.190
 03 12 23 22 18 30.0010000  0  6G 5G24G 7G17G 4G 9
  22048280.469     1726948.73543   1360897.16542  22048282.301    22048283.165
  21177018.690     2263800.01344   1777202.35142  21177020.697    21177020.834
  23469680.832    10034238.10343   7811202.10542  23469682.021    23469682.984
  23650040.521    -5630661.93943  -4365901.24242  23650042.551    23650044.120
  21097106.534     6973664.40544   5435353.55342  21097108.972    21097107.884
  21378268.510     7665893.89144   5973491.89342  21378270.716    21378269.771
 03 12 23 22 19  0.0010000  0  6G 5G24G 7G17G 4G 9
  22034576.166     1654931.99043   1304780.28542  22034577.968    22034578.822
  21166872.330     2210480.25644   1735654.56042  21166874.373    21166874.362
  23482830.197    10103338.28043   7865046.36942  23482831.528    23482832.352
  23631473.337    -5728232.68443  -4441930.29242  23631475.254    23631476.900
  21103102.161     7005171.29744   5459904.39542  21103104.628    21103103.455
  21386369.672     7708465.78644   6006664.78442  21386371.874    21386370.940
 03 12 23 22 19 30.0010000  0  6G 5G24G 7G17G 4G 9
  22020908.964     1583109.70143   1248814.93942  22020910.663    22020911.426
  21156822.169     2157666.02144   1694500.68542  21156824.263    21156824.095
  23495984.591    10172464.76743   7918911.13942  23495985.875    23495986.755
  23612937.813    -5825636.92043  -4517829.63242  23612939.731    23612941.409
  21109207.214     7037253.36244   5484903.43442  21109209.724    21109208.440
  21394574.349     7751582.16144   6040261.94042  21394576.581    21394575.684
 03 12 23 22 20  0.0010000  0  6G 5G24G 7G17G 4G 9
  22007279.748     1511487.63643   1193005.59842  22007281.516    22007282.126
  21146869.057     2105362.67044   1653744.89142  21146871.265    21146871.019
  23509144.503    10241621.41843   7972799.41642  23509145.965    23509146.823
  23594435.273    -5922868.42343  -4593594.37842  23594437.094    23594438.771
  21115422.107     7069913.45944   5510352.88742  21115424.647    21115423.410
  21402883.186     7795245.31844   6074285.17142  21402885.411    21402884.496
 03 12 23 22 20 30.0010000  0  6G 5G24G 7G17G 4G 9
  21993687.764     1440061.14543   1137348.65742  21993689.578    21993689.991
  21137012.166     2053565.05844   1613383.17742  21137014.402    21137014.115
  23522308.839    10310800.94543   8026705.50842  23522310.312    23522311.332
  23575964.684    -6019931.55243  -4669227.95342  23575966.571    23575968.212
  21121745.467     7103142.99544   5536246.06142  21121747.964    21121746.770
  21411294.528     7839446.90144   6108727.93942  21411296.741    21411295.804
 03 12 23 22 21  0.0010000  0  6G 5G24G 7G17G 4G 9
  21980133.589     1368833.44643   1081846.61042  21980135.455    21980135.642
  21127251.995     2002276.03844   1573417.75642  21127254.217    21127253.952
  23535477.857    10380004.40343   8080630.25242  23535479.329    23535480.358
  23557526.890    -6116822.60643  -4744727.44842  23557528.724    23557530.529
  21128177.172     7136941.91344   5562582.91642  21128179.690    21128178.467
  21419808.286     7884186.47544   6143589.92142  21419810.478    21419809.545
 03 12 23 22 21 30.0010000  0  6G 5G24G 7G17G 4G 9
  21966617.918     1297808.36143   1026502.43442  21966619.833    21966619.799
  21117589.352     1951498.93844   1533851.22842  21117591.443    21117591.270
  23548651.817    10449233.41043   8134574.89542  23548653.250    23548654.227
  23539122.540    -6213537.45643  -4820089.66642  23539124.339    23539126.414
  21134717.359     7171310.73144   5589363.85842  21134719.870    21134718.573
  21428424.430     7929464.26644   6178871.29542  21428426.630    21428425.636
 03 12 23 22 22  0.0010000  0  6G 5G24G 7G17G 4G 9
  21953141.412     1226988.61743    971318.27042  21953143.282    21953143.148
  21108024.689     1901236.26844   1494685.54542  21108026.660    21108026.557
  23561830.698    10518488.48943   8188539.84542  23561832.107    23561833.255
  23520752.451    -6310072.64743  -4895311.90342  23520754.048    23520756.407
  21141365.860     7206248.65644   5616588.25242  21141368.391    21141366.999
  21437142.768     7975279.78244   6214571.68342  21437144.998    21437144.019
 03 12 23 22 22 30.0010000  0  6G 5G24G 7G17G 4G 9
  21939703.465     1156372.29643    916292.61242  21939705.388    21939705.163
  21098557.474     1851485.51744   1455918.75942  21098559.364    21098559.330
  23575013.635    10587765.49243   8242521.88442  23575015.073    23575016.284
  23502416.241    -6406429.94443  -4970395.52142  23502417.573    23502420.256
  21148121.604     7241750.31244   5644251.91742  21148124.153    21148122.742
  21445962.372     8021627.17644   6250686.51342  21445964.558    21445963.603
 03 12 23 22 23  0.0010000  0  6G 5G24G 7G17G 4G 9
  21926305.383     1085965.17743    861429.97242  21926307.253    21926307.001
  21089188.647     1802251.74244   1417554.79942  21089190.519    21089190.532
  23588201.371    10657067.90943   8296523.72142  23588202.862    23588204.042
  23484115.025    -6502603.05343  -5045335.61842  23484116.364    23484119.092
  21154985.004     7277817.99144   5672356.63442  21154987.596    21154986.236
  21454883.559     8068508.68444   6287217.53942  21454885.770    21454884.877
 03 12 23 22 23 30.0010000  0  6G 5G24G 7G17G 4G 9
  21912946.773     1015766.14943    806729.48642  21912948.646    21912948.412
  21079917.837     1753533.45644   1379592.51542  21079919.826    21079919.804
  23601393.255    10726392.21443   8350542.60742  23601394.812    23601396.013
  23465848.754    -6598592.94943  -5120132.94742  23465850.025    23465852.748
  21161955.251     7314447.02044   5700898.75342  21161957.828    21161956.589
  21463905.553     8115919.31144   6324160.85942  21463907.694    21463906.871
 03 12 23 22 24  0.0010000  0  6G 5G24G 7G17G 4G 9
  21899628.149      945776.88143    752192.45042  21899629.974    21899629.799
  21070745.422     1705332.12144   1342033.05142  21070747.451    21070747.406
  23614589.272    10795738.15743   8404578.37542  23614590.864    23614592.064
  23447617.972    -6694397.15343  -5194785.56642  23447619.236    23447621.736
  21169031.981     7351635.75744   5729876.99842  21169034.570    21169033.446
  21473027.849     8163857.16144   6361515.01442  21473029.968    21473029.196
 03 12 23 22 24 30.0010000  0  6G 5G24G 7G17G 4G 9
  21886350.352      876002.70243    697823.02642  21886352.198    21886352.160
  21061672.134     1657652.04444   1304879.76342  21061674.185    21061674.114
  23627789.995    10865108.66743   8458633.27342  23627791.572    23627792.788
  23429423.456    -6790010.28943  -5269289.25442  23429424.830    23429426.927
  21176215.542     7389385.52244   5759292.40642  21176218.137    21176216.985
  21482250.648     8212323.43844   6399280.92142  21482252.780    21482251.987
 03 12 23 22 25  0.0010000  0  6G 5G24G 7G17G 4G 9
  21873113.279      806440.72543    643618.94042  21873114.995    21873114.903
  21052697.402     1610489.40144   1268129.66742  21052699.395    21052699.256
  23640994.586    10934498.17043   8512702.98542  23640995.953    23640997.228
  23411264.709    -6885435.45343  -5343646.48042  23411266.320    23411267.888
  21183504.592     7427689.83144   5789139.92742  21183507.226    21183505.991
  21491572.797     8261311.33444   6437453.28742  21491574.924    21491573.998
 03 12 23 22 25 30.0010000  0  6G 5G24G 7G17G 4G 9
  21859917.421      737096.04143    589584.17842  21859919.177    21859919.064
  21043821.987     1563849.35644   1231786.79442  21043824.014    21043823.897
  23654203.413    11003910.19843   8566790.22142  23654204.651    23654206.036
  23393142.767    -6980666.40143  -5417852.33442  23393144.665    23393145.942
  21190899.600     7466550.39544   5819420.89542  21190902.198    21190900.842
  21500994.534     8310822.52444   6476033.41042  21500996.673    21500995.604
 03 12 23 22 26  0.0010000  0  6G 5G24G 7G17G 4G 9
  21846763.219      667969.60443    535719.46642  21846764.972    21846764.697
  21035046.148     1517731.89744   1195851.13442  21035048.064    21035048.004
  23667416.348    11073343.35143   8620893.92842  23667417.499    23667418.854
  23375058.034    -7075701.99743  -5491905.95542  23375060.066    23375061.196
  21198399.824     7505964.93644   5850133.52442  21198402.489    21198401.128
  21510515.272     8360854.16044   6515019.07642  21510517.442    21510516.295
 03 12 23 22 26 30.0010000  0  6G 5G24G 7G17G 4G 9
  21833651.172      599065.10843    482027.70442  21833653.000    21833652.627
  21026370.232     1472139.88344   1160324.91842  21026372.125    21026372.092
  23680633.629    11142799.05043   8675015.20142  23680634.700    23680636.156
  23357011.219    -7170538.07843  -5565804.08342  23357013.320    23357014.531
  21206005.566     7545933.09844   5881277.54842  21206008.164    21206006.789
  21520134.977     8411405.90844   6554410.03342  21520137.159    21520135.991
 03 12 23 22 27  0.0010000  0  6G 5G24G 7G17G 4G 9
  21820580.770      530379.75943    428506.71042  21820582.632    21820582.210
  21017793.647     1427069.81144   1125205.41442  21017795.518    21017795.528
  23693853.854    11212272.31243   8729150.15642  23693855.143    23693856.733
  23339001.858    -7265177.33443  -5639548.83542  23339003.910    23339005.336
  21213715.371     7586448.29644   5912847.83242  21213717.952    21213716.589
  21529852.503     8462471.30044   6594201.23042  21529854.675    21529853.505
 03 12 23 22 27 30.0010000  0  6G 5G24G 7G17G 4G 9
  21807553.642      461922.06743    375163.11142  21807555.559    21807555.140
  21009317.824     1382529.34144   1090498.59442  21009319.712    21009319.741
  23707078.583    11281769.28943   8783303.58642  23707080.055    23707081.708
  23321031.551    -7359611.00143  -5713133.38042  23321033.588    23321035.246
  21221530.180     7627515.47044   5944848.21542  21221532.742    21221531.402
  21539668.444     8514054.50444   6634395.91542  21539670.703    21539669.502
 03 12 23 22 28  0.0010000  0  6G 5G24G 7G17G 4G 9
  21794569.259      393688.83443    321994.42342  21794571.174    21794570.729
  21000942.107     1338514.35444   1056201.24942  21000943.960    21000943.968
  23720306.755    11351284.19343   8837471.01842  23720308.305    23720309.922
  23303099.810    -7453842.36943  -5786560.27242  23303101.767    23303103.599
  21229448.682     7669127.23744   5977272.95942  21229451.214    21229449.832
  21549581.598     8566148.32944   6674988.49242  21549583.839    21549582.602
 03 12 23 22 28 30.0010000  0  6G 5G24G 7G17G 4G 9
  21781628.996      325687.17343    269006.17242  21781630.944    21781630.413
  20992667.540     1295031.46344   1022318.52242  20992669.442    20992669.477
  23733539.253    11420822.37543   8891656.60842  23733540.832    23733542.466
  23285208.052    -7547863.59943  -5859823.42442  23285209.977    23285211.943
  21237471.514     7711287.40244   6010125.02942  21237474.018    21237472.595
  21559592.479     8618756.32344   6715981.71342  21559594.723    21559593.541
 03 12 23 22 29  0.0010000  0  6G 5G24G 7G17G 4G 9
  21768731.497      257910.76443    216193.44942  21768733.515    21768732.949
  20984492.945     1252073.49244    988844.82742  20984494.821    20984494.901
  23746774.824    11490375.25843   8945853.61742  23746776.046    23746777.999
  23267355.305    -7641680.59543  -5932927.43042  23267357.122    23267359.058
  21245596.723     7753985.73444   6043396.44342  21245599.215    21245597.771
  21569699.263     8671868.11643   6757367.51442  21569701.442    21569700.352
 03 12 23 22 29 30.0010000  0  6G 5G24G 7G17G 4G 9
  21755878.188      190366.43943    163561.56942  21755880.223    21755879.644
  20976419.291     1209646.43544    955784.83542  20976421.189    20976421.282
  23760014.129    11559947.29243   9000065.56042  23760015.246    23760017.162
  23249542.399    -7735286.77743  -6005867.15942  23249544.370    23249546.237
  21253824.895     7797225.18344   6077089.49942  21253827.350    21253825.975
  21579902.457     8725486.22044   6799147.84442  21579904.635    21579903.571
 03 12 23 22 30  0.0010000  0  6G 5G24G 7G17G 4G 9
  21743068.937      123054.08143    111110.44042  21743070.990    21743070.496
  20968446.439     1167749.10544    923137.61442  20968448.364    20968448.408
  23773256.602    11629536.20543   9054290.67542  23773257.608    23773259.537
  23231769.977    -7828681.54043  -6078642.16642  23231771.893    23231773.591
  21262155.356     7841001.84644   6111201.16942  21262157.802    21262156.416
  21590201.365     8779606.94944   6841319.82442  21590203.536    21590202.410
 03 12 23 22 30 30.0010000  0  6G 5G24G 7G17G 4G 9
  21730304.984       55979.57343     58844.66442  21730306.947    21730306.567
  20960575.284     1126386.44144    890907.02142  20960577.243    20960577.262
  23786502.971    11699145.54143   9108531.68242  23786503.994    23786505.819
  23214038.679    -7921859.39543  -6151248.14742  23214040.614    23214042.177
  21270588.397     7885317.52744   6145732.85342  21270590.844    21270589.412
  21600596.130     8834231.67844   6883884.53642  21600598.311    21600597.108
 03 12 23 22 31  0.0010000  0  6G 5G24G 7G17G 4G 9
  21717585.987      -10858.68443      6762.97442  21717587.905    21717587.589
  20952805.490     1085556.20644    859091.30542  20952807.466    20952807.388
  23799752.474    11768772.01143   9162786.03342  23799753.648    23799755.534
  23196348.615    -8014820.84543  -6223685.52642  23196350.607    23196351.865
  21279123.114     7930167.40544   6180680.79442  21279125.577    21279124.065
  21611085.758     8889355.31444   6926838.00942  21611087.936    21611086.724
 03 12 23 22 31 30.0010000  0  6G 5G24G 7G17G 4G 9
  21704912.525      -77457.81643    -45132.37342  21704914.410    21704914.113
  20945137.425     1045260.09444    827691.78442  20945139.370    20945139.156
  23813005.155    11838415.69143   9217053.83742  23813006.466    23813008.399
  23178700.349    -8107563.33043  -6295952.28642  23178702.282    23178703.303
  21287759.059     7975550.06144   6216043.88942  21287761.594    21287760.095
  21621670.037     8944976.32644   6970179.04442  21621672.212    21621671.053
 03 12 23 22 32  0.0010000  0  7G 5G24G 7G30G17G 4G 9
  21692284.360     -143819.35843    -96842.58342  21692286.227    21692285.897
  20937570.484     1005495.42944    796706.37742  20937572.460    20937572.103
  23826260.562    11908072.96943   9271332.23742  23826261.863    23826263.815
  24401220.146     -850818.07253   -608527.04552  24401224.351    24401225.053
  23161093.303    -8200088.19343  -6368049.48642  23161095.323    23161096.174
  21296495.344     8021459.81944   6251817.71442  21296497.868    21296496.442
  21632348.037     9001089.00943   7013903.19642  21632350.191    21632348.989
 03 12 23 22 32 30.0010000  0  7G 5G24G 7G30G17G 4G 9
  21679702.189     -209938.88543   -148364.21042  21679704.080    21679703.677
  20930105.261      966265.89544    766137.95142  20930107.297    20930106.907
  23839518.956    11977746.25243   9325623.09842  23839520.223    23839522.061
  24382550.355     -948930.88143   -684978.42242  24382553.950    24382554.994
  23143528.712    -8292390.74843  -6439973.46842  23143530.734    23143531.425
  21305332.165     8067897.42344   6288002.84742  21305334.641    21305333.223
  21643119.586     9057693.77843   7058010.79142  21643121.695    21643120.594
 03 12 23 22 33  0.0010000  0  7G 5G24G 7G30G17G 4G 9
  21667167.293     -275809.79743   -199692.12242  21667169.235    21667168.707
  20922742.987      927577.03744    735990.82042  20922744.992    20922744.668
  23852781.242    12047439.73743   9379929.71842  23852782.456    23852784.217
  24363881.186    -1047034.22343   -761422.47342  24363885.140    24363886.583
  23126007.720    -8384463.97243  -6511718.75942  23126009.710    23126010.352
  21314269.967     8114865.50144   6324601.34842  21314272.442    21314270.986
  21653985.006     9114792.84643   7102503.55942  21653987.145    21653986.284
 03 12 23 22 33 30.0010000  0  7G 5G24G 7G30G17G 4G 9
  21654679.316     -341434.33443   -250828.05242  21654681.264    21654680.642
  20915482.936      889425.32944    706262.24442  20915484.939    20915484.687
  23866046.573    12117149.11043   9434248.69142  23866047.832    23866049.677
  24345214.133    -1145130.76043   -837861.22242  24345218.072    24345219.624
  23108530.021    -8476310.21043  -6583287.18742  23108531.973    23108532.511
  21323307.496     8162357.89344   6361608.41442  21323309.991    21323308.502
  21664943.390     9172379.99343   7147376.65142  21664945.527    21664944.849
 03 12 23 22 34  0.0010000  0  7G 5G24G 7G30G17G 4G 9
  21642239.245     -406807.25543   -301767.91742  21642241.100    21642240.391
  20908325.989      851815.01644    676955.53842  20908327.984    20908327.684
  23879315.532    12186877.42743   9488582.42042  23879316.902    23879318.628
  24326548.268    -1243215.78543   -914290.95042  24326552.521    24326554.999
  23091096.502    -8567923.81443  -6654674.33942  23091098.504    23091099.061
  21332444.989     8210376.01144   6399025.13842  21332447.513    21332446.118
  21675995.084     9230456.53843   7192631.08842  21675997.150    21675996.480
 03 12 23 22 34 30.0010000  0  7G 5G24G 7G30G17G 4G 9
  21629847.733     -471924.85643   -352508.83242  21629849.602    21629848.710
  20901272.462      814748.43744    648072.52042  20901274.508    20901274.104
  23892588.285    12256625.84343   9542931.80742  23892589.780    23892591.338
  24307885.515    -1341286.14853   -990709.28352  24307889.760    24307892.947
  23073707.991    -8659301.14343  -6725877.38142  23073710.034    23073710.623
  21341682.378     8258918.90344   6436850.78642  21341684.890    21341683.560
  21687139.682     9289021.61843   7238266.19342  21687141.763    21687141.043
 03 12 23 22 35  0.0010000  0  7G 5G24G 7G30G17G 4G 9
  21617502.849     -536797.77143   -403059.09342  21617504.736    21617503.674
  20894320.237      778214.19044    619604.30042  20894322.294    20894321.797
  23905862.472    12326381.87443   9597287.14942  23905864.022    23905865.581
  24289224.039    -1439352.89153  -1067124.77952  24289227.392    24289231.498
  23056362.385    -8750452.49543  -6796904.33142  23056364.533    23056365.203
  21351016.867     8307972.15744   6475074.11642  21351019.410    21351018.114
  21698374.405     9348060.41343   7284270.42642  21698376.478    21698375.798
 03 12 23 22 35 30.0010000  0  6G 5G24G 7G17G 4G 9
  21605207.334     -601410.95943   -453406.96942  21605209.278    21605208.085
  20887471.892      742226.13644    591561.68442  20887473.931    20887473.431
  23919140.512    12396158.30143   9651658.32342  23919142.006    23919143.622
  23039062.824    -8841362.80143  -6867743.44742  23039064.911    23039065.582
  21360450.704     8357547.01344   6513703.90342  21360453.193    21360451.871
  21709701.249     9407583.51943   7330652.05142  21709703.335    21709702.684
 03 12 23 22 36  0.0010000  0  6G 5G24G 7G17G 4G 9
  21592960.492     -665768.44444   -503555.59942  21592962.428    21592961.263
  20880726.447      706778.72344    563940.34742  20880728.521    20880727.966
  23932421.193    12465948.86343   9706040.55242  23932422.708    23932424.357
  23021808.297    -8932035.84843  -6938397.68542  23021810.385    23021811.040
  21369982.086     8407635.23644   6552733.71742  21369984.652    21369983.241
  21721118.705     9467582.85343   7377404.77042  21721120.823    21721120.253
 03 12 23 22 36 30.0010000  0  6G 5G24G 7G17G 4G 9
  21580762.000     -729871.02443   -553505.60042  21580764.001    21580762.973
  20874083.475      671869.53444    536738.41342  20874085.496    20874084.944
  23945704.041    12535750.26143   9760431.26642  23945705.336    23945706.708
  23004598.712    -9022472.50743  -7008867.70942  23004600.748    23004601.487
  21379610.286     8458231.68444   6592159.54742  21379612.836    21379611.331
  21732625.829     9528052.93243   7424524.30042  21732627.944    21732627.350
 03 12 23 22 37  0.0010000  0  7G 5G24G 7G30G17G 4G 9
  21568612.829     -793715.61044   -603254.56942  21568614.695    21568613.803
  20867543.363      637501.27944    509957.98542  20867545.402    20867544.892
  23958988.959    12605564.07943   9814831.63242  23958990.389    23958991.872
  24214610.761     -479196.89653   -357411.92852  24214610.185    24214615.474
  22987434.681    -9112669.11843  -7079150.69742  22987436.699    22987437.532
  21389335.109     8509335.94144   6631981.06842  21389337.677    21389336.103
  21744222.496     9588993.19943   7472010.21142  21744224.600    21744223.897
 03 12 23 22 37 30.0010000  0  7G 5G24G 7G30G17G 4G 9
  21556513.662     -857297.21544   -652798.61842  21556515.495    21556514.673
  20861106.859      603677.37544    483601.72642  20861108.859    20861108.445
  23972277.202    12675392.75843   9869243.53442  23972278.374    23972279.616
  24195963.165     -577184.65943   -433765.91542  24195964.286    24195968.733
  22970317.248    -9202621.01643  -7149242.99542  22970319.221    22970320.061
  21399156.592     8560948.25944   6672198.47942  21399159.195    21399157.539
  21755908.682     9650403.90543   7519862.69442  21755910.810    21755909.993
 03 12 23 22 38  0.0010000  0  7G 5G24G 7G30G17G 4G 9
  21544465.215     -920612.19044   -702134.90642  21544467.048    21544466.211
  20854774.404      570400.11744    457671.42642  20854776.380    20854776.034
  23985568.193    12745237.71643   9923668.13142  23985569.414    23985570.658
  24177320.888     -675149.65743   -510102.22342  24177322.826    24177326.317
  22953247.193    -9292324.34043  -7219141.61142  22953249.059    22953249.778
  21409074.779     8613068.55444   6712811.71142  21409077.349    21409075.644
  21767684.232     9712284.48344   7568081.31242  21767686.419    21767685.527
 03 12 23 22 38 30.0010000  0  7G 5G24G 7G30G17G 4G 9
  21532467.142     -983662.20344   -751264.73442  21532469.003    21532468.161
  20848545.544      537667.11644    432165.22742  20848547.492    20848547.179
  23998861.667    12815095.62243   9978102.87342  23998862.840    23998864.185
  24158682.645     -773093.52943   -586422.05842  24158685.279    24158687.982
  22936224.206    -9381780.14143  -7288847.34942  22936226.069    22936226.624
  21419088.545     8665691.03844   6753816.25742  21419091.096    21419089.342
  21779548.090     9774629.18443   7616661.59342  21779550.341    21779549.420
 03 12 23 22 39  0.0010000  0  7G 5G24G 7G30G17G 4G 9
  21520521.372    -1046437.86744   -800180.78542  21520523.168    21520522.257
  20842421.532      505485.53944    407088.71442  20842423.523    20842423.223
  24012158.436    12884972.98043  10032552.74742  24012160.064    24012161.458
  24140049.660     -871008.00643   -662718.97142  24140052.684    24140055.334
  22919250.108    -9470979.66243  -7358353.39842  22919251.910    22919252.236
  21429198.752     8718820.48144   6795215.82842  21429201.308    21429199.612
  21791501.088     9837442.47343   7665607.00742  21791503.390    21791502.454
 03 12 23 22 39 30.0010000  0  7G 5G24G 7G30G17G 4G 9
  21508626.187    -1108947.18944   -848889.30342  21508627.998    21508627.001
  20836400.734      473846.15944    382434.69842  20836402.705    20836402.446
  24025457.704    12954859.74143  10087009.97142  24025459.245    24025460.591
  24121420.912     -968901.30843   -738999.35042  24121423.966    24121426.706
  22902323.289    -9559930.76843  -7427665.87742  22902325.074    22902325.244
  21439403.030     8772444.65444   6837000.88942  21439405.616    21439403.984
  21803541.018     9900712.07244   7714907.98342  21803543.263    21803542.273
 03 12 23 22 40  0.0010000  0  7G 5G24G 7G30G17G 4G 9
  21496781.974    -1171188.37843   -897388.87842  21496783.858    21496782.839
  20830483.209      442749.73244    358203.75742  20830485.212    20830484.937
  24038758.802    13024755.81643  10141474.45442  24038759.812    24038761.357
  24102796.896    -1066771.65743   -815261.83942  24102800.006    24102802.294
  22885444.121    -9648631.28543  -7496783.09742  22885445.939    22885446.004
  21449701.173     8826561.65444   6879169.97442  21449703.746    21449702.107
  21815667.072     9964435.43643   7764562.54642  21815669.376    21815668.384
 03 12 23 22 40 30.0010000  0  7G 5G24G 7G30G17G 4G 9
  21484990.640    -1233152.21344   -945672.33342  21484992.511    21484991.478
  20824670.543      412203.96244    334401.90242  20824672.537    20824672.224
  24052063.048    13094668.33443  10195951.72142  24052063.566    24052065.334
  24084178.833    -1164610.42543   -891499.70742  24084182.132    24084183.939
  22868614.383    -9737071.99943  -7565697.88642  22868616.238    22868616.233
  21460094.064     8881176.33444   6921726.86042  21460096.600    21460094.872
  21827880.529    10028617.62143   7814574.62442  21827882.784    21827881.828
 03 12 23 22 41  0.0010000  0  7G 5G24G 7G30G17G 4G 9
  21473251.948    -1294839.28344   -993740.14242  21473253.820    21473252.811
  20818962.258      382206.80644    311027.53642  20818964.241    20818963.934
  24065369.463    13164594.48143  10250439.60642  24065370.017    24065372.127
  24065566.604    -1262418.55843   -967713.67442  24065570.071    24065571.263
  22851833.966    -9825253.30443  -7634410.54242  22851835.874    22851835.898
  21470580.699     8936283.77544   6964667.71742  21470583.235    21470581.394
  21840180.283    10093253.40243   7864940.15942  21840182.543    21840181.686
 03 12 23 22 41 30.0010000  0  7G 5G24G 7G30G17G 4G 9
  21461566.136    -1356248.02144  -1041591.06142  21461568.039    21461567.090
  20813358.379      352758.16244    288080.58242  20813360.335    20813360.016
  24078678.085    13234533.66643  10304937.68642  24078679.008    24078681.193
  24046960.411    -1360194.83743  -1043902.78042  24046963.999    24046964.918
  22835103.277    -9913173.72943  -7702919.91642  22835105.191    22835105.248
  21481160.509     8991881.43744   7007990.56942  21481163.110    21481161.215
  21852565.969    10158340.03944   7915656.99642  21852568.111    21852567.378
 03 12 23 22 42  0.0010000  0  7G 5G24G 7G30G17G 4G 9
  21449933.839    -1417375.80743  -1089223.05742  21449935.718    21449934.878
  20807859.007      323859.10344    265561.87442  20807860.983    20807860.653
  24091989.199    13304486.28643  10359446.17342  24091990.345    24091992.768
  24028360.330    -1457937.26243  -1120065.47942  24028364.052    24028365.097
  22818422.702   -10000830.56043  -7771223.89142  22818424.652    22818424.851
  21491833.302     9047967.64544   7051694.11042  21491835.856    21491834.078
  21865036.848    10223875.20243   7966723.34742  21865039.068    21865038.421
 03 12 23 22 42 30.0010000  0  7G 5G24G 7G30G17G 4G 9
  21438354.897    -1478223.02743  -1136636.42342  21438356.767    21438356.020
  20802463.772      295507.31744    243469.61942  20802465.740    20802465.414
  24105302.661    13374449.32043  10413962.79542  24105303.369    24105305.459
  24009766.535    -1555646.79543  -1196202.54142  24009770.247    24009771.508
  22801792.092   -10088224.66343  -7839323.14242  22801794.080    22801794.352
  21502598.083     9104537.29044   7095774.35442  21502600.634    21502598.959
  21877592.202    10289854.00743   8018135.38842  21877594.366    21877593.766
 03 12 23 22 43  0.0010000  0  7G 5G24G 7G30G17G 4G 9
  21426830.297    -1538784.95243  -1183827.48242  21426832.134    21426831.438
  20797173.367      267706.19944    221806.45242  20797175.304    20797174.941
  24118618.845    13444425.75843  10468489.83742  24118619.505    24118620.546
  23991180.054    -1653318.80643  -1272310.34642  23991183.737    23991184.805
  22785212.566   -10175350.88143  -7907213.62442  22785214.512    22785214.766
  21513455.115     9161591.11444   7140231.88442  21513457.628    21513456.036
  21890231.977    10356276.77943   8069893.37242  21890234.098    21890233.538
 03 12 23 22 43 30.0010000  0  7G 5G24G 7G30G17G 4G 9
  21415358.711    -1599068.19143  -1230801.38242  21415360.567    21415359.859
  20791986.294      240448.10444    200566.41942  20791988.236    20791987.828
  24131936.711
  23972599.234    -1750959.99643  -1348394.13042  23972603.100    23972604.113
  22768682.803   -10262215.54743  -7974900.28742  22768684.678    22768684.899
  21524402.176     9219118.36744   7185058.32142  21524404.707    21524403.212
  21902954.337    10423132.78043   8121988.93342  21902956.375    21902955.742
 03 12 23 22 44  0.0010000  0  7G 5G24G 7G30G17G 4G 9
  21403944.132    -1659052.26844  -1277542.17542  21403945.968    21403945.199
  20786906.088      213751.58744    179763.97542  20786908.063    20786907.580
  24145257.018
  23954028.025    -1848550.69143  -1424438.53442  23954031.972    23954033.111
  22752206.495   -10348798.60643  -8042367.50242  22752208.394    22752208.552
  21535442.364     9277134.95244   7230266.06742  21535444.911    21535443.370
  21915761.951    10490437.70543   8174434.30142  21915764.106    21915763.419
 03 12 23 22 44 30.0010000  0  7G 5G24G 7G30G17G 4G 9
  21392581.670    -1718762.16144  -1324069.32242  21392583.509    21392582.700
  20781927.730      187590.32344    159378.62142  20781929.690    20781929.202
  24158580.329
  23935461.622    -1946115.73543  -1500462.96942  23935465.415    23935466.899
  22735778.983   -10435124.66243  -8109634.43442  22735780.962    22735781.107
  21546570.173     9335611.96844   7275832.59442  21546572.725    21546571.165
  21928649.610    10558162.48243   8227206.82642  21928651.709    21928651.093
 03 12 23 22 45  0.0010000  0  7G 5G24G 7G30G17G 4G 9
  21381279.018    -1778157.57844  -1370351.41542  21381280.893    21381280.099
  20777058.485      162002.45144    139440.06942  20777060.419    20777059.918
  24171905.185
  23916907.563    -2043615.70543  -1576436.70942  23916911.309    23916913.174
  22719408.098   -10521153.69043  -8176669.89942  22719410.056    22719410.201
  21557792.236     9394584.78444   7321785.45842  21557794.807    21557793.265
  21941623.819    10626342.39443   8280334.00842  21941625.906    21941625.359
 03 12 23 22 45 30.0010000  0  7G 5G24G 7G30G17G 4G 9
  21370027.977    -1837282.10244  -1416422.42442  21370029.836    21370029.087
  20772289.822      136943.24944    119913.46642  20772291.779    20772291.275
  24185231.837
  23898357.876    -2141093.99343  -1652393.60242  23898361.479    23898363.476
  22703085.487   -10606929.24843  -8243507.84742  22703087.398    22703087.564
  21569099.680     9454005.90344   7368087.64442  21569102.198    21569100.660
  21954675.487    10694929.39243   8333778.38542  21954677.556    21954677.071
 03 12 23 22 46  0.0010000  0  7G 5G24G 7G30G17G 4G 9
  21358835.475    -1896098.93344  -1462253.66642  21358837.350    21358836.612
  20767628.254      112447.02844    100825.54942  20767630.218    20767629.782
  24198561.430
  23879819.001    -2238514.70243  -1728305.63242  23879822.396    23879824.850
  22686817.971   -10692414.89443  -8310119.87942  22686819.881    22686820.067
  21580498.530     9513907.30644   7414764.07642  21580501.055    21580499.455
  21967810.709    10763955.31843   8387564.78942  21967812.773    21967812.275
 03 12 23 22 46 30.0010000  0  7G 5G24G 7G30G17G 4G 9
  21347700.399    -1954613.70344  -1507849.52742  21347702.327    21347701.613
  20763072.609       88507.07044     82171.07542  20763074.527    20763074.103
  24211892.570
  23861289.920    -2335883.17643  -1804176.98342  23861293.087    23861296.246
  22670604.648   -10777615.56943  -8376509.86642  22670606.532    22670606.762
  21591987.089     9574279.56044   7461807.40642  21591989.575    21591987.967
  21981027.597    10833410.43443   8441685.61942  21981029.667    21981029.130
 03 12 23 22 47  0.0010000  0  7G 5G24G 7G30G17G 4G 9
  21336621.066    -2012835.80444  -1553217.33642  21336622.979    21336622.267
  20758620.694       65112.51544     63941.60342  20758622.600    20758622.177
  24225223.700
  23842769.042    -2433209.31243  -1880015.35442  23842771.858    23842775.606
  22654443.782   -10862541.05343  -8442685.42942  22654445.656    22654445.765
  21603562.509     9635108.82644   7509206.84242  21603565.050    21603563.460
  21994323.518    10903280.69443   8496129.94342  21994325.536    21994325.020
 03 12 23 22 47 30.0010000  0  7G 5G24G 7G30G17G 4G 9
  21325598.076    -2070761.74344  -1598354.36842  21325599.997    21325599.242
  20754272.961       42264.73344     46138.18842  20754274.798    20754274.312
  24238559.798
  23824256.763    -2530490.21943  -1955818.50142  23824259.443    23824263.577
  22638335.864   -10947188.34643  -8508644.22742  22638337.728    22638337.728
  21615224.626     9696393.44944   7556961.09942  21615227.163    21615225.563
  22007698.041    10973564.41743   8550896.44642  22007700.046    22007699.609
 03 12 23 22 48  0.0010000  0  7G 5G24G 7G30G17G 4G 9
  21314635.029    -2128372.84644  -1643246.06842  21314636.906    21314636.140
  20750032.263       19980.11944     28773.60742  20750034.159    20750033.643
  24251897.223
  23805756.800    -2627707.40943  -2031572.01842  23805759.385    23805763.614
  22622284.471   -11031538.69643  -8574371.65142  22622286.318    22622286.161
  21626976.110     9758148.10043   7605081.60442  21626978.640    21626977.114
  22021153.916    11044275.86643   8605996.24142  22021155.954    22021155.619
 03 12 23 22 48 30.0010000  0  7G 5G24G 7G30G17G 4G 9
  21303728.923    -2185684.45744  -1687904.39342  21303730.818    21303730.023
  20745895.535       -1758.13044     11834.76042  20745897.468    20745896.952
  24265235.614
  23787265.967    -2724876.49043  -2107288.05142  23787268.664    23787272.832
  22606286.577   -11115607.41443  -8639879.63842  22606288.485    22606288.252
  21638813.231     9820352.86443   7653552.84642  21638815.726    21638814.282
  22034687.429    11115395.12443   8661413.81842  22034689.519    22034689.224
 03 12 23 22 49  0.0010000  0  7G 5G24G 7G30G17G 4G 9
  21292882.565    -2242682.47344  -1732318.36642  21292884.417    21292883.569
  20741865.155      -22937.79944     -4668.82842  20741867.068    20741866.588
  24278577.359
  23768787.096    -2821983.53843  -2182955.76442  23768789.822    23768793.681
  22590344.960   -11199380.44243  -8705157.23142  22590346.872    22590346.703
  21650737.787     9883017.68243   7702382.57242  21650740.326    21650738.972
  22048300.461    11186931.61443   8717156.50142  22048302.466    22048302.174
 03 12 23 22 49 30.0010000  0  7G 5G24G 7G30G17G 4G 9
  21282093.420    -2299379.80444  -1776498.04442  21282095.252    21282094.336
  20737938.306      -43573.59744    -20748.62742  20737940.196    20737939.685
  24291920.554     6478032.25653    173989.63552  24291921.860    24291924.638
  23750317.271    -2919041.73443  -2258585.43242  23750320.085    23750323.897
  22574457.170   -11282870.78543  -8770214.56342  22574459.024    22574459.084
  21662746.644     9946124.90843   7751557.04342  21662749.134    21662747.840
  22061989.422    11258867.68843   8773210.55242  22061991.452    22061991.165
 03 12 23 22 50  0.0010000  0  7G 5G24G 7G30G17G 4G 9
  21271364.239    -2355761.44344  -1820431.71542  21271366.126    21271365.176
  20734117.382      -63652.15244    -36394.20642  20734119.322    20734118.817
  24305266.267     6548161.80743    228635.97342  24305268.199    24305269.920
  23731859.522    -3016035.90043  -2334165.18642  23731862.388    23731866.369
  22558625.948   -11366063.38943  -8835039.91542  22558627.738    22558628.157
  21674841.851    10009685.53043   7801084.80442  21674844.303    21674843.001
  22075756.513    11331214.15643   8829584.39742  22075758.500    22075758.251
 03 12 23 22 50 30.0010000  0  7G 5G24G 7G30G17G 4G 9
  21260694.038    -2411833.54844  -1864124.19642  21260695.930    21260694.957
  20730401.086      -83181.28544    -51611.66442  20730403.043    20730402.511
  24318613.547     6618297.54843    283287.16042  24318614.949    24318616.892
  23713413.006    -3112972.63143  -2409700.17642  23713415.687    23713419.674
  22542850.256   -11448964.54943  -8899638.16942  22542851.942    22542852.701
  21687021.346    10073689.00043   7850957.65142  21687023.767    21687022.427
  22089599.620    11403960.03443   8886269.46542  22089601.577    22089601.416
 03 12 23 22 51  0.0010000  0  7G 5G24G 7G30G17G 4G 9
  21250083.882    -2467590.03544  -1907570.74142  21250085.765    21250084.816
  20726790.046     -102157.30644    -66398.12342  20726792.017    20726791.419
  24331961.701     6688443.62743    337946.46642  24331963.666    24331965.691
  23694978.856    -3209846.09543  -2485185.89242  23694981.267    23694985.077
  22527131.306   -11531568.49443  -8964004.82742  22527132.864    22527133.696
  21699285.229    10138136.61043   7901176.57842  21699287.686    21699286.391
  22103518.928    11477106.38143   8943266.59142  22103520.927    22103520.813
 03 12 23 22 51 30.0010000  0  7G 5G24G 7G30G17G 4G 9
  21239534.142    -2523028.98044  -1950769.85542  21239536.036    21239535.146
  20723284.266     -120580.06544    -80753.47142  20723286.268    20723285.621
  24345312.246
  23676556.814    -3306654.72843  -2560621.05842  23676559.238    23676562.835
  22511469.373   -11613873.26643  -9028138.36642  22511470.914    22511471.534
  21711633.255    10203025.82243   7951739.60542  21711635.617    21711634.431
  22117514.029    11550650.56743   9000573.72442  22117516.034    22117515.890
 03 12 23 22 52  0.0010000  0  7G 5G24G 7G30G17G 4G 9
  21229043.700    -2578156.41644  -1993726.23942  21229045.603    21229044.706
  20719882.265     -138457.55944    -94683.94142  20719884.254    20719883.571
  24358665.390
  23658145.828    -3403404.47543  -2636010.32942  23658148.505    23658151.736
  22495863.016   -11695885.03743  -9092043.59442  22495864.720    22495865.032
  21724063.340    10268346.27643   8002638.67542  21724065.723    21724064.573
  22131582.748    11624581.89943   9058182.52842  22131584.778    22131584.592
 03 12 23 22 52 30.0010000  0  7G 5G24G 7G30G17G 4G 9
  21218619.649    -2632935.06344  -2036410.84442  21218621.550    21218620.566
  20716590.617     -155754.84144   -108162.30142  20716592.648    20716591.929
  24372017.646
  23639753.148    -3500058.46943  -2711324.97242  23639755.893    23639758.871
  22480319.374   -11777566.58643  -9155691.50342  22480321.304    22480321.399
  21736581.649    10334130.75743   8053899.32142  21736584.125    21736582.953
  22145731.247    11698932.75743   9116118.23342  22145733.251    22145733.030
 03 12 23 22 53  0.0010000  0  7G 5G24G 7G30G17G 4G 9
  21208253.740    -2687408.31944  -2078857.48542  21208255.626    21208254.531
  20713400.809     -172517.52144   -121224.08342  20713402.807    20713402.026
  24385375.908
  23621370.378    -3596660.49243  -2786599.12442  23621373.348    23621375.647
  22464830.296   -11858961.99043  -9219116.44042  22464832.245    22464832.160
  21749179.033    10400330.84743   8105483.81942  21749181.544    21749180.373
  22159950.287    11773654.75643   9174343.14542  22159952.400    22159952.103
 03 12 23 22 53 30.0010000  0  6G 5G24G30G17G 4G 9
  21197950.508    -2741551.58944  -2121046.99142  21197952.444    21197951.307
  20710317.085     -188722.51844   -133851.31242  20710319.127    20710318.316
  23603002.374    -3693185.79043  -2861813.47742  23603005.377    23603007.100
  22449400.329   -11940046.35443  -9282299.00142  22449402.328    22449402.119
  21761859.480    10466967.15643   8157408.23042  21761861.973    21761860.757
  22174244.061    11848768.30543   9232873.15342  22174246.132    22174245.760
 03 12 23 22 54  0.0010000  0  6G 5G24G30G17G 4G 9
  21187709.982    -2795365.43644  -2162979.80342  21187711.938    21187710.858
  20707338.890     -204372.64144   -146046.17142  20707340.939    20707340.241
  23584648.499    -3789635.18743  -2936968.66342  23584651.683    23584653.027
  22434029.445   -12020820.33043  -9345239.70042  22434031.476    22434031.167
  21774621.959    10534034.40643   8209668.44042  21774624.420    21774623.154
  22188611.264    11924267.98043   9291704.05242  22188613.373    22188612.929
 03 12 23 22 54 30.0010000  0  6G 5G24G30G17G 4G 9
  21177531.240    -2848855.12444  -2204660.02842  21177533.122    21177532.125
  20704464.825     -219475.42444   -157814.54242  20704466.829    20704466.311
  23566308.058    -3886014.50743  -3012069.24542  23566311.290    23566312.346
  22418716.603   -12101289.68743  -9407943.03742  22418718.643    22418718.196
  21787464.472    10601522.67843   8262256.71142  21787466.938    21787465.739
  22203049.936    12000143.36943   9350827.71642  22203052.012    22203051.546
 03 12 23 22 55  0.0010000  0  6G 5G24G30G17G 4G 9
  21167415.228    -2902015.06244  -2246083.30342  21167417.092    21167416.098
  20701695.631     -234027.22144   -169153.56942  20701697.596    20701697.177
  23547982.364    -3982317.78343  -3087110.59942  23547985.524    23547985.938
  22403462.730   -12181448.84743  -9470404.64242  22403464.770    22403464.301
  21800387.325    10669433.00943   8315173.86242  21800389.702    21800388.671
  22217560.126    12076395.37043   9410244.84342  22217562.279    22217561.880
 03 12 23 22 55 30.0010000  0  6G 5G24G30G17G 4G 9
  21157363.418    -2954837.40944  -2287243.51742  21157365.321    21157364.288
  20699032.487     -248022.23244   -180058.73342  20699034.403    20699033.923
  23529672.435    -4078537.34643  -3162086.69442  23529675.593    23529675.594
  22388269.383   -12261289.94743  -9532618.41242  22388271.366    22388270.964
  21813391.206    10737769.23643   8368422.87642  21813393.585    21813392.669
  22232142.699    12153027.35543   9469958.05942  22232144.863    22232144.429
 03 12 23 22 56  0.0010000  0  6G 5G24G30G17G 4G 9
  21147374.312    -3007330.57644  -2328147.23442  21147376.183    21147375.084
  20696473.338     -261470.93644   -190538.19642  20696475.222    20696474.612
  23511376.813    -4174681.68143  -3237004.17242  23511379.981    23511379.537
  22373134.892   -12340821.59643  -9594591.04742  22373136.788    22373136.541
  21826473.631    10806518.20643   8421993.51142  21826476.079    21826475.190
  22246795.102    12230026.11943   9529957.07142  22246797.268    22246796.752
 03 12 23 22 56 30.0010000  0  6G 5G24G30G17G 4G 9
  21137450.036    -3059482.64144  -2368785.15842  21137451.929    21137450.761
  20694019.869     -274363.96744   -200584.67042  20694021.791    20694021.040
  23493097.498    -4270739.38343  -3311854.13942  23493100.708    23493100.087
  22358061.504   -12420032.53743  -9656313.77242  22358063.189    22358063.185
  21839636.042    10875686.93543   8475891.22642  21839638.459    21839637.541
  22261518.520    12307398.33143   9590247.08042  22261520.676    22261520.260
 03 12 23 22 57  0.0010000  0  6G 5G24G30G17G 4G 9
  21127590.224    -3111296.31944  -2409159.40342  21127592.084    21127590.892
  20691671.250     -286706.01444   -210201.81042  20691673.220    20691672.419
  23474834.237    -4366712.83543  -3386638.47342  23474837.390    23474836.685
  22343048.571   -12498925.43443  -9717788.67942  22343050.147    22343050.360
  21852877.018    10945268.44443   8530110.59442  21852879.393    21852878.407
  22276311.646    12385136.92743   9650822.59142  22276313.733    22276313.587
 03 12 23 22 57 30.0010000  0  6G 5G24G30G17G 4G 9
  21117795.198    -3162769.35744  -2449268.21442  21117797.038    21117795.877
  20689427.434     -298497.05744   -219389.58942  20689429.439    20689428.707
  23456587.379    -4462600.23043  -3461355.76842  23456590.610    23456589.660
  22328096.643   -12577498.47143  -9779014.33842  22328098.098    22328098.364
  21866196.061    11015260.30343   8584649.72142  21866198.441    21866197.360
  22291173.870    12463238.99243   9711681.34442  22291175.966    22291175.967
 03 12 23 22 58  0.0010000  0  6G 5G24G30G17G 4G 9
  21108064.727    -3213902.90944  -2489112.49142  21108066.580    21108065.460
  20687287.850     -309740.47444   -228150.65242  20687289.862    20687289.184
  23438356.839    -4558402.57243  -3536006.78742  23438359.983    23438359.017
  22313205.450   -12655752.55743  -9839991.47142  22313206.895    22313207.125
  21879592.079    11085656.94343   8639504.26542  21879594.531    21879593.382
  22306104.407    12541698.80343   9772818.85042  22306106.408    22306106.393
 03 12 23 22 58 30.0010000  0  6G 5G24G30G17G 4G 9
  21098400.711    -3264687.42044  -2528684.79142  21098402.562    21098401.439
  20685253.814     -320428.99244   -236479.32842  20685255.836    20685255.224
  23420143.935    -4654110.54743  -3610584.26942  23420147.184    23420146.275
  22298376.551   -12733678.88443  -9900713.19842  22298378.089    22298378.270
  21893066.047    11156463.07543   8694677.89242  21893068.504    21893067.460
  22321103.910    12620520.78543   9834238.56142  22321105.889    22321105.783
 03 12 23 22 59  0.0010000  0  6G 5G24G30G17G 4G 9
  21088801.926    -3315129.10444  -2567989.95242  21088803.792    21088802.632
  20683323.863     -330570.89344   -244382.06442  20683325.860    20683325.263
  23401948.040    -4749730.35243  -3685093.08942  23401951.214    23401950.238
  22283608.856   -12811283.67543  -9961184.37842  22283610.473    22283610.628
  21906616.021    11227668.22443   8750162.43942  21906618.468    21906617.496
  22336170.241    12699694.32743   9895932.21142  22336172.312    22336171.975
 03 12 23 22 59 30.0010000  0  6G 5G24G30G17G 4G 9
  21079270.959    -3365214.54844  -2607017.52842  21079272.809    21079271.577
  20681500.070     -340155.21744   -251850.32642  20681502.043    20681501.363
  23383771.472    -4845248.49443  -3759522.67042  23383774.530    23383773.638
  22268904.727   -12888553.86543 -10021394.82742  22268906.476    22268906.659
  21920243.584    11299281.07343   8805964.67042  21920246.054    21920244.979
  22351305.002    12779227.87343   9957906.39742  22351307.184    22351306.702
 03 12 23 23  0  0.0010000  0  6G 5G24G30G17G 4G 9
  21069806.019    -3414953.13644  -2645774.82742  21069807.818    21069806.533
  20679780.087     -349193.55444   -258893.14442  20679782.119    20679781.329
  23365612.306    -4940674.27943  -3833880.29642  23365615.408    23365614.512
  22254262.559   -12965498.69343 -10081351.74242  22254264.358    22254264.552
  21933945.911    11371287.96643   8862073.94442  21933948.500    21933947.389
  22366505.462    12859107.30243  10020150.10442  22366507.734    22366507.318
 03 12 23 23  0 30.0010000  0  6G 5G24G30G17G 4G 9
  21060407.995    -3464339.48744  -2684257.65342  21060409.808    21060408.575
  20678164.681     -357682.61044   -265507.95642  20678166.693    20678165.823
  23347471.839    -5036002.22243  -3908161.66342  23347474.863    23347474.176
  22239683.264   -13042113.07843 -10141051.16342  22239685.079    22239685.332
  21947723.515    11443689.68743   8918490.88242  21947726.000    21947724.943
  22381771.978    12939333.37843  10082663.92042  22381774.256    22381773.843
 03 12 23 23  1  0.0010000  0  6G 5G24G30G17G 4G 9
  21051078.005    -3513368.64344  -2722462.15242  21051079.793    21051078.608
  20676654.097     -365620.63444   -271693.39542  20676656.146    20676655.203
  23329350.626    -5131228.28143  -3982363.63642  23329353.679    23329353.261
  22225167.537   -13118393.26443 -10200490.17142  22225169.389    22225169.724
  21961576.161    11516485.84743   8975215.16642  21961578.628    21961577.486
  22397104.401    13019905.13443  10145447.09942  22397106.621    22397106.130
 03 12 23 23  1 30.0010000  0  6G 5G24G30G17G 4G 9
  21041815.711    -3562042.20444  -2760389.55742  21041817.482    21041816.342
  20675247.794     -373010.89344   -277452.00442  20675249.796    20675248.804
  23311248.793    -5226353.29743  -4056486.88142  23311251.721    23311251.675
  22210715.076   -13194340.38043 -10259669.64042  22210717.075    22210717.424
  21975502.746    11589670.84443   9032242.43642  21975505.276    21975504.051
  22412501.387    13100817.01243  10208495.30142  22412503.680    22412503.090
 03 12 23 23  2  0.0010000  0  6G 5G24G30G17G 4G 9
  21032621.202    -3610359.55944  -2798039.40042  21032623.013    21032621.877
  20673945.303     -379855.53644   -282785.46642  20673947.314    20673946.254
  23293166.190    -5321376.72043  -4130530.95142  23293169.176    23293169.344
  22196326.075   -13269954.39243 -10318589.54242  22196328.067    22196328.472
  21989502.717    11663240.62843   9089569.53142  21989505.186    21989503.879
  22427962.274    13182064.51443  10271805.03842  22427964.559    22427963.910
 03 12 23 23  2 30.0010000  0  6G 5G24G30G17G 4G 9
  21023496.242    -3658311.53544  -2835404.53142  21023498.082    21023496.890
  20672748.004     -386147.64544   -287688.38142  20672749.992    20672748.912
  23275104.760    -5416289.58943  -4204488.90442  23275107.610    23275107.849
  22182002.281   -13345226.18243 -10377242.78542  22182004.208    22182004.578
  22003576.727    11737199.83443   9147200.08642  22003579.195    22003577.751
  22443487.743    13263651.87243  10335379.60142  22443490.070    22443489.422
 03 12 23 23  3  0.0010000  0  6G 5G24G30G17G 4G 9
  21014439.261    -3705905.68544  -2872490.83742  21014441.186    21014440.005
  20671653.851     -391897.00144   -292168.37142  20671655.860    20671654.814
  23257062.903    -5511099.00443  -4278366.21242  23257065.647    23257066.061
  22167742.139   -13420163.47643 -10435635.38142  22167744.064    22167744.317
  22017722.564    11811536.65143   9205124.86542  22017725.039    22017723.617
  22459075.805    13345567.30943  10399209.79942  22459078.028    22459077.412
 03 12 23 23  3 30.0010000  0  6G 5G24G30G17G 4G 9
  21005451.596    -3753136.03444  -2909293.66142  21005453.488    21005452.334
  20670663.779     -397099.89344   -296222.55042  20670665.763    20670664.708
  23239041.693    -5605799.10343  -4352158.33642  23239044.396    23239045.101
  22153546.753   -13494760.80143 -10493763.06742  22153548.664    22153548.790
  22031940.590    11886252.11543   9263344.70142  22031943.005    22031941.546
  22474726.405    13427811.46743  10463296.15642  22474728.624    22474728.037
 03 12 23 23  4  0.0010000  0  6G 5G24G30G17G 4G 9
  20996534.120    -3799997.52744  -2945809.06742  20996535.998    20996534.863
  20669778.122     -401754.10744   -299849.18142  20669780.073    20669779.038
  23221042.291    -5700385.10543  -4425861.58942  23221044.927    23221045.644
  22139416.888   -13569013.77243 -10551622.42142  22139418.818    22139418.744
  22046230.574    11961346.53843   9321859.80742  22046233.064    22046231.627
  22490439.629    13510384.31443  10527638.62542  22490441.828    22490441.147
 03 12 23 23  4 30.0010000  0  6G 5G24G30G17G 4G 9
  20987686.662    -3846491.28444  -2982037.91842  20987688.537    20987687.382
  20668996.180     -405863.27044   -303051.09342  20668998.130    20668997.075
  23203064.554    -5794857.83843  -4499476.56942  23203067.152    23203067.753
  22125352.256   -13642923.45143 -10609214.28242  22125354.233    22125354.092
  22060591.623    12036814.44543   9380665.94742  22060594.119    22060592.777
  22506214.278    13593280.27543  10592232.87042  22506216.506    22506215.722
 03 12 23 23  5  0.0010000  0  6G 5G24G30G17G 4G 9
  20978909.406    -3892615.61144  -3017978.90442  20978911.319    20978910.225
  20668317.828     -409428.30144   -305829.00342  20668319.784    20668318.669
  23185108.813    -5889215.55143  -4573001.93142  23185111.410    23185111.817
  22111353.220   -13716488.79243 -10666537.82842  22111355.136    22111354.965
  22075023.303    12112652.88643   9439760.81442  22075025.719    22075024.425
  22522049.652    13676495.88743  10657076.19242  22522051.962    22522051.060
 03 12 23 23  5 30.0010000  0  6G 5G24G30G17G 4G 9
  20970203.460    -3938365.52944  -3053628.13842  20970205.363    20970204.296
  20667743.391     -412446.54744   -308180.84442  20667745.413    20667744.286
  23167176.103    -5983453.23843  -4646433.76942  23167178.653    23167178.673
  22097420.533   -13789704.77343 -10723589.14942  22097422.524    22097422.367
  22089525.372    12188862.14743   9499144.61642  22089527.853    22089526.675
  22537945.820    13760031.19643  10722168.62942  22537948.179    22537947.196
 03 12 23 23  6  0.0010000  0  6G 5G24G30G17G 4G 9
  20961568.126    -3983744.27644  -3088988.14842  20961570.046    20961568.980
  20667271.924     -414923.84544   -310111.16242  20667273.954    20667272.834
  23149265.750    -6077573.60443  -4719774.21342  23149268.284    23149268.040
  22083553.767   -13862574.93243 -10780371.00242  22083555.716    22083555.554
  22104096.601    12265434.84543   9558811.62642  22104099.141    22104097.982
  22553901.348    13843878.41843  10787504.11442  22553903.721    22553902.764
 03 12 23 23  6 30.0010000  0  6G 5G24G30G17G 4G 9
  20953004.303    -4028747.36144  -3124055.43942  20953006.244    20953005.123
  20666903.824     -416857.88944   -311618.16942  20666905.846    20666904.721
  23131378.495    -6171572.26643  -4793019.80842  23131381.061    23131380.682
  22069753.490   -13935095.14643 -10836880.17142  22069755.446    22069755.298
  22118737.217    12342370.89343   9618761.76442  22118739.687    22118738.433
  22569916.156    13928037.24043  10853082.41242  22569918.522    22569917.598
 03 12 23 23  7  0.0010000  0  6G 5G24G30G17G 4G 9
  20944511.966    -4073374.74344  -3158829.97342  20944513.903    20944512.732
  20666638.527     -418251.79444   -312704.28142  20666640.529    20666639.381
  23113514.267    -6265449.04143  -4866170.43342  23113516.992    23113516.429
  22056019.731   -14007265.98043 -10893117.10342  22056021.677    22056021.513
  22133446.098    12419665.36244   9678991.19842  22133448.510    22133447.084
  22585989.422    14012502.52443  10918899.50042  22585991.738    22585990.822
 03 12 23 23  7 30.0010000  0  6G 5G24G30G17G 4G 9
  20936091.709    -4117622.98744  -3193309.07342  20936093.660    20936092.507
  20666476.237     -419104.31844   -313368.53942  20666478.263    20666477.039
  23095673.948    -6359200.27043  -4939223.21542  23095676.872    23095676.074
  22042353.163   -14079084.18843 -10949079.25542  22042355.006    22042354.836
  22148222.791    12497317.46543   9739499.31542  22148225.255    22148223.818
  22602120.808    14097273.39243  10984954.71242  22602123.140    22602122.178
 03 12 23 23  8  0.0010000  0  6G 5G24G30G17G 4G 9
  20927744.769    -4161486.27044  -3227488.19942  20927746.673    20927745.568
  20666417.556     -419412.56644   -313608.68142  20666419.570    20666418.285
  23077858.751    -6452820.60243  -5012174.01042  23077861.695    23077860.637
  22028754.461   -14150545.11743 -11004763.01442  22028756.316    22028756.149
  22163067.593    12575327.56143   9800286.39142  22163070.094    22163068.666
  22618310.303    14182349.90043  11051248.07942  22618312.694    22618311.741
 03 12 23 23  8 30.0010000  0  6G 5G24G30G17G 4G 9
  20919470.864    -4204965.74144  -3261368.25542  20919472.803    20919471.698
  20666461.873     -419179.58144   -313427.09242  20666463.886    20666462.528
  23060068.211    -6546310.34643  -5085023.02042  23060071.105    23060069.974
  22015223.735   -14221649.23643 -11060168.74142  22015225.521    22015225.376
  22177979.622    12653690.89743   9861348.71542  22177982.138    22177980.730
  22634556.865    14267726.71443  11117775.45042  22634559.288    22634558.441
 03 12 23 23  9  0.0010000  0  6G 5G24G30G17G 4G 9
  20911270.317    -4248059.96144  -3294948.11442  20911272.249    20911271.120
  20666608.818     -418407.18144   -312825.17842  20666610.817    20666609.475
  23042302.884    -6639667.80643  -5157768.95542  23042305.804    23042304.629
  22001761.149   -14292395.69243 -11115295.76142  22001762.819    22001762.643
  22192958.364    12732404.37243   9922683.87442  22192960.843    22192959.439
  22650859.903    14353400.26843  11184534.04042  22650862.221    22650861.602
 03 12 23 23  9 30.0010000  0  6G 5G24G30G17G 4G 9
  20903142.939    -4290769.36944  -3328228.11942  20903144.903    20903143.717
  20666857.793     -417098.49844   -311805.38242  20666859.784    20666858.510
  23024562.495    -6732893.64343  -5230412.31742  23024565.490    23024564.329
  21988366.343   -14362785.61943 -11170144.96842  21988368.013    21988367.771
  22208002.702    12811462.36343   9984287.48942  22208005.138    22208003.647
  22667218.341    14439365.12343  11251519.62642  22667220.624    22667220.182
 03 12 23 23 10  0.0010000  0  7G 5G24G30G17G10G 4G 9
  20895090.160    -4333086.68944  -3361202.60142  20895092.116    20895090.886
  20667209.809     -415248.60744   -310363.87042  20667211.728    20667210.494
  23006848.645    -6825980.12043  -5302947.09342  23006851.655    23006850.411
  21975040.709   -14432812.21143 -11224711.06242  21975042.404    21975042.047
  24300305.658
  22223113.107    12890867.92343  10046161.94442  22223115.614    22223114.002
  22683632.830    14525623.68243  11318734.06342  22683634.979    22683634.677
 03 12 23 23 10 30.0010000  0  7G 5G24G30G17G10G 4G 9
  20887108.976    -4375028.04344  -3393884.12842  20887110.879    20887109.574
  20667661.158     -412876.26144   -308515.25342  20667663.069    20667661.843
  22989158.149    -6918943.19443  -5375385.70842  22989161.291    22989160.023
  21961781.172   -14502491.85243 -11279006.80742  21961782.913    21961782.394
  24281486.789
  22238285.667    12970600.26743  10108291.03242  22238288.243    22238286.704
  22700099.312    14612155.08843  11386161.10542  22700101.429    22700101.113
 03 12 23 23 11  0.0010000  0  7G 5G24G30G17G10G 4G 9
  20879203.912    -4416569.38744  -3426253.95542  20879205.802    20879204.408
  20668215.988     -409960.35944   -306243.08542  20668217.888    20668216.625
  22971495.952    -7011758.55143  -5447709.23342  22971499.047    22971497.669
  21948592.114   -14571800.65743 -11333013.58242  21948593.941    21948593.377
  24262674.667    -1002531.09553   -759114.20852  24262674.763    24262676.441
  22253524.198    13050679.12343  10170690.12742  22253526.762    22253525.317
  22716621.471    14698978.36843  11453815.58742  22716623.596    22716623.064
 03 12 23 23 11 30.0010000  0  7G 5G24G30G17G10G 4G 9
  20871374.476    -4457713.04344  -3458313.90242  20871376.388    20871374.981
  20668873.353     -406505.91944   -303551.28542  20668875.265    20668873.935
  22953861.412    -7104428.38343  -5519919.34642  22953864.464    22953862.983
  21935472.943   -14640741.68143 -11386733.78642  21935474.876    21935474.322
  24243868.271    -1101358.15643   -836122.16942  24243868.915    24243869.562
  22268827.406    13131097.43843  10233353.74542  22268829.923    22268828.549
  22733197.631    14786086.38143  11521691.93442  22733199.873    22733199.215
 03 12 23 23 12  0.0010000  0  7G 5G24G30G17G10G 4G 9
  20863621.616    -4498454.18444  -3490060.20442  20863623.531    20863622.190
  20669633.578     -402511.01844   -300438.34942  20669635.481    20669634.137
  22936255.433    -7196947.66743  -5592012.17642  22936258.473    22936256.780
  21922424.613   -14709310.63743 -11440164.06442  21922426.561    21922426.071
  24225068.470    -1200146.97843   -913100.27642  24225069.803    24225070.958
  22284195.177    13211855.40043  10296282.02642  22284197.724    22284196.302
  22749827.894    14873478.93743  11589789.99942  22749830.151    22749829.546
 03 12 23 23 12 30.0010000  0  7G 5G24G30G17G10G 4G 9
  20855944.259    -4538798.62544  -3521497.38642  20855946.154    20855944.870
  20670495.105     -397983.54044   -296910.42342  20670497.034    20670495.714
  22918676.958    -7289321.49343  -5663991.64042  22918680.055    22918678.256
  21909445.978   -14777513.32343 -11493308.94142  21909447.907    21909447.524
  24206275.556    -1298901.85243   -990051.90242  24206277.032    24206278.505
  22299625.614    13292943.10743  10359467.24242  22299628.222    22299626.742
  22766510.194    14961145.83943  11658101.84242  22766512.486    22766512.049
 03 12 23 23 13  0.0010000  0  7G 5G24G30G17G10G 4G 9
  20848342.918    -4578743.73744  -3552623.40342  20848344.796    20848343.513
  20671457.941     -392923.86444   -292967.79942  20671459.873    20671458.558
  22901126.777    -7381546.96243  -5735855.53042  22901129.878    22901128.032
  21896537.475   -14845347.48643 -11546166.66042  21896539.403    21896539.113
  24187489.495    -1397618.71543  -1066973.92342  24187491.322    24187493.157
  22315118.424    13374358.38343  10422907.70342  22315120.969    22315119.509
  22783244.439    15049084.73643  11726625.63142  22783246.577    22783246.317
 03 12 23 23 13 30.0010000  0  7G 5G24G30G17G10G 4G 9
  20840818.678    -4618283.75744  -3583433.77642  20840820.515    20840819.208
  20672522.506     -387329.28244   -288608.36242  20672524.480    20672523.145
  22883606.000    -7473618.14643  -5807599.20542  22883609.053    22883607.337
  21883700.103   -14912808.21143 -11598733.38642  21883702.024    21883701.705
  24168712.428    -1496290.68343  -1143860.94542  24168713.944    24168716.458
  22330673.795    13456102.46443  10486604.38142  22330676.306    22330674.744
  22800030.617    15137296.40143  11795361.95742  22800032.611    22800032.439
 03 12 23 23 14  0.0010000  0  7G 5G24G30G17G10G 4G 9
  20833369.988    -4657426.79644  -3613934.81442  20833371.805    20833370.451
  20673686.763     -381210.80244   -283840.69542  20673688.720    20673687.421
  22866113.205    -7565543.18843  -5879229.01742  22866116.108    22866114.517
  21870932.141   -14979904.34443 -11651016.01242  21870934.038    21870933.608
  24149942.845    -1594924.75543  -1220718.44242  24149944.176    24149947.054
  22346289.264    13538162.59143  10550547.33242  22346291.827    22346290.221
  22816866.269    15225767.69443  11864300.59642  22816868.205    22816867.997
 03 12 23 23 14 30.0010000  0  7G 5G24G30G17G10G 4G 9
  20825998.468    -4696164.20444  -3644119.78442  20826000.302    20825998.885
  20674951.854     -374562.33344   -278660.06242  20674953.780    20674952.563
  22848650.073    -7657312.59443  -5950737.53642  22848652.892    22848651.541
  21858235.175   -15046626.99943 -11703007.61942  21858237.070    21858236.556
  24131182.147    -1693510.45643  -1297538.21442  24131183.726    24131187.133
  22361965.798    13620543.23943  10614740.02342  22361968.394    22361966.781
  22833752.076    15314502.91143  11933444.89142  22833754.075    22833753.811
 03 12 23 23 15  0.0010000  0  7G 5G24G30G17G10G 4G 9
  20818705.124    -4734491.00344  -3673984.79842  20818706.943    20818705.480
  20676318.346     -367381.48644   -273064.59342  20676320.185    20676319.011
  22831217.520    -7748921.16243  -6022120.73942  22831220.347    22831219.108
  21845610.136   -15112971.76543 -11754704.76842  21845612.002    21845611.379
  24112431.860    -1792041.33143  -1374315.26642  24112433.710    24112437.212
  22377703.313    13703244.83843  10679182.80242  22377705.952    22377704.462
  22850688.161    15403502.04743  12002794.83642  22850690.163    22850689.796
 03 12 23 23 15 30.0010000  0  7G 5G24G30G17G10G 4G 9
  20811489.386    -4772409.84144  -3703531.91542  20811491.220    20811489.740
  20677785.124     -359673.79944   -267058.59642  20677786.945    20677785.744
  22813815.077    -7840371.30943  -6093380.51042  22813817.959    22813816.762
  21833056.346   -15178941.95243 -11806110.03142  21833058.208    21833057.509
  24093692.423    -1890518.81643  -1451050.74742  24093694.245    24093697.043
  22393500.499    13786259.89643  10743869.84242  22393503.152    22393501.759
  22867672.853    15492757.52943  12072344.54042  22867674.895    22867674.557
 03 12 23 23 16  0.0010000  0  7G 5G24G30G17G10G 4G 9
  20804351.967    -4809917.14244  -3732758.36342  20804353.827    20804352.330
  20679352.236     -351438.53844   -260641.50642  20679354.118    20679352.882
  22796443.497    -7931658.99443  -6164513.67842  22796446.492    22796445.353
  21820574.462   -15244534.57343 -11857221.08642  21820576.281    21820575.481
  24074963.714    -1988938.12043  -1527740.86942  24074966.168    24074968.017
  22409357.270    13869587.71943  10808800.57242  22409359.823    22409358.542
  22884706.017    15582267.95143  12142092.89642  22884708.023    22884707.833
 03 12 23 23 16 30.0010000  0  7G 5G24G30G17G10G 4G 9
  20797292.645    -4847014.32744  -3761665.23942  20797294.471    20797292.949
  20681018.956     -342679.65844   -253816.40442  20681020.890    20681019.652
  22779102.592    -8022785.08643  -6235520.91842  22779105.601    22779104.671
  21808164.042   -15309751.16643 -11908039.13342  21808165.901    21808165.031
  24056246.481    -2087298.75943  -1604385.29642  24056249.036    24056250.250
  22425272.519    13953222.68143  10873970.64142  22425275.015    22425273.684
  22901786.719    15672027.30943  12212035.22742  22901788.587    22901788.445
 03 12 23 23 17  0.0010000  0  7G 5G24G30G17G10G 4G 9
  20790312.319    -4883696.21244  -3790248.50242  20790314.159    20790312.612
  20682785.700     -333395.35844   -246581.87842  20682787.606    20682786.386
  22761793.663    -8113744.24343  -6306398.08742  22761796.635    22761795.697
  21795826.045   -15374587.54143 -11958560.90142  21795827.885    21795826.978
  24037541.071    -2185594.40243  -1680979.10842  24037544.105    24037544.876
  22441246.328    14037164.79143  10939380.03842  22441248.753    22441247.275
  22918914.818    15762035.79143  12282171.68142  22918916.651    22918916.432
 03 12 23 23 17 30.0010000  0  7G 5G24G30G17G10G 4G 9
  20783411.383    -4919961.20244  -3818506.91442  20783413.209    20783411.582
  20684652.211     -323586.59344   -238938.67942  20684654.121    20684652.913
  22744516.750    -8204533.98443  -6377143.23642  22744519.826    22744518.953
  21783560.786   -15439041.97843 -12008785.05942  21783562.583    21783561.635
  24018848.687    -2283821.66143  -1757519.63042  24018851.842    24018852.659
  22457278.062    14121412.08943  11005027.25542  22457280.565    22457278.975
  22936089.875    15852290.64043  12352500.09742  22936091.659    22936091.304
 03 12 23 23 18  0.0010000  0  7G 5G24G30G17G10G 4G 9
  20776589.912    -4955808.17044  -3846439.59842  20776591.797    20776590.093
  20686618.194     -313255.35544   -230888.35142  20686620.082    20686618.873
  22727272.406    -8295153.20743  -6447755.51842  22727275.464    22727274.550
  21771368.132   -15503114.21943 -12058711.40242  21771370.016    21771369.044
  24000169.462    -2381978.37843  -1834005.20042  24000172.490    24000173.600
  22473367.159    14205960.69343  11070909.25342  22473369.650    22473368.093
  22953310.939    15942787.78643  12423017.33442  22953312.847    22953312.283
 03 12 23 23 18 30.0010000  0  7G 5G24G30G17G10G 4G 9
  20769848.702    -4991233.43044  -3874043.67542  20769850.600    20769848.853
  20688683.805     -302400.49944   -222429.99942  20688685.708    20688684.442
  22710061.207    -8385597.75543  -6518231.67842  22710064.324    22710063.581
  21759248.794   -15566801.06743 -12108337.44442  21759250.716    21759249.862
  23981504.498    -2480059.20843  -1910431.60742  23981507.482    23981509.302
  22489513.457    14290809.86343  11137025.47542  22489515.901    22489514.354
  22970577.891    16033526.06743  12493722.46642  22970579.854    22970579.182
 03 12 23 23 19  0.0010000  0  7G 5G24G30G17G10G 4G 9
  20763186.779    -5026241.89944  -3901322.97942  20763188.675    20763186.919
  20690847.534     -291029.93544   -213569.79642  20690849.453    20690848.143
  22692882.517    -8475872.16943  -6588575.28642  22692885.532    22692884.841
  21747201.846   -15630108.04143 -12157667.48642  21747203.744    21747202.950
  23962854.255    -2578067.78043  -1986801.73042  23962856.601    23962858.937
  22505715.071    14375949.99143  11203368.40442  22505717.514    22505715.936
  22987888.925    16124495.79143  12564607.93942  22987890.889    22987890.146
 03 12 23 23 19 30.0010000  0  7G 5G24G30G17G10G 4G 9
  20756605.720    -5060825.49044  -3928271.20642  20756607.587    20756605.867
  20693110.299     -279138.67444   -204303.84742  20693112.240    20693110.941
  22675737.780    -8565967.65443  -6658779.45842  22675740.766    22675740.278
  21735228.628   -15693027.43444 -12206695.52642  21735230.523    21735229.786
  23944219.887    -2675994.02043  -2063107.69542  23944221.660    23944224.548
  22521972.868    14461385.17743  11269941.25642  22521975.334    22521973.662
  23005244.551    16215700.47043  12635676.49542  23005246.571    23005245.875
 03 12 23 23 20  0.0010000  0  7G 5G24G30G17G10G 4G 9
  20750105.270    -5094985.22544  -3954889.15842  20750107.150    20750105.483
  20695471.403     -266730.43944   -194635.05842  20695473.358    20695472.128
  22658627.005    -8655884.56843  -6728844.48542  22658629.876    22658629.496
  21723328.923   -15755560.70843 -12255422.69042  21723330.768    21723330.097
  23925600.962    -2773837.55243  -2139349.22542  23925602.514    23925605.915
  22538285.624    14547110.08743  11336739.86742  22538288.194    22538286.576
  23022643.860    16307134.29043  12706923.61942  23022645.874    23022645.279
 03 12 23 23 20 30.0010000  0  7G 5G24G30G17G10G 4G 9
  20743686.309    -5128717.23544  -3981173.81942  20743688.170    20743686.465
  20697931.184     -253804.38644   -184562.76542  20697933.081    20697931.839
  22641550.883    -8745618.83043  -6798767.19342  22641553.878    22641553.529
  21711503.324   -15817704.48243 -12303846.36042  21711505.140    21711504.496
  23906998.916    -2871593.03043  -2215522.12942  23907000.524    23907003.800
  22554653.476    14633123.92543  11403763.61342  22554655.929    22554654.478
  23040086.581    16398796.28243  12778348.52842  23040088.594    23040088.145
 03 12 23 23 21  0.0010000  0  8G 5G24G30G17G10G 6G 4G 9
  20737348.506    -5162022.83844  -4007126.21542  20737350.345    20737348.598
  20700488.619     -240364.83644   -174090.34842  20700490.553    20700489.276
  22624509.627    -8835171.12843  -6868548.08642  22624512.461    22624512.295
  21699751.439   -15879460.78143 -12351968.09842  21699753.208    21699752.648
  23888413.472    -2969260.18343  -2291626.21442  23888415.822    23888418.405
  24820453.641     -669881.89353   -507513.94152  24820452.879    24820459.953
  22571075.142    14719420.99343  11471008.07342  22571077.586    22571076.324
  23057571.571    16490680.30343  12849946.44342  23057573.587    23057573.269
 03 12 23 23 21 30.0010000  0  7G 5G24G30G17G10G 4G 9
  20731092.999    -5194895.53044  -4032741.27742  20731094.871    20731093.130
  20703144.520     -226407.94744   -163214.80642  20703146.458    20703145.181
  22607504.323    -8924534.06743  -6938181.43542  22607507.175    22607507.026
  21688074.485   -15940823.27244 -12399782.98542  21688076.205    21688075.660
  23869846.669    -3066830.79443  -2367655.10742  23869849.367    23869851.379
  22587551.192    14806003.72143  11538475.12842  22587553.595    22587552.529
  23075099.182    16582788.46243  12921719.01342  23075101.210    23075100.878
 03 12 23 23 22  0.0010000  0  7G 5G24G30G17G10G 4G 9
  20724919.564    -5227337.30844  -4058020.55942  20724921.408    20724919.635
  20705897.849     -211938.96644   -151940.24542  20705899.802    20705898.517
  22590534.725    -9013709.37943  -7007668.59442  22590537.654    22590537.497
  21676472.012   -16001794.79144 -12447293.22442  21676473.658    21676472.998
  23851297.599    -3164305.31543  -2443609.13942  23851300.671    23851302.437
  22604080.426    14892865.50243  11606159.61542  22604082.720    22604081.893
  23092668.051    16675113.62543  12993660.67342  23092670.118    23092669.775
 03 12 23 23 22 30.0010000  0  7G 5G24G30G17G10G 4G 9
  20718828.142    -5259347.96844  -4082963.91142  20718830.007    20718828.157
  20708748.077     -196960.27044   -140268.49742  20708750.107    20708748.813
  22573601.253    -9102696.29743  -7077008.95142  22573604.113    22573603.890
  21664943.838   -16062375.49444 -12494498.92942  21664945.471    21664944.702
  23832767.201    -3261682.05043  -2519487.00042  23832770.410    23832771.913
  22620661.979    14980002.13843  11674058.29942  22620664.299    22620663.423
  23110277.457    16767651.20143  13065767.86042  23110279.451    23110279.054
 03 12 23 23 23  0.0010000  0  7G 5G24G30G17G10G 4G 9
  20712819.348    -5290924.61944  -4107569.07242  20712821.208    20712819.263
  20711695.353     -181472.15444   -128199.81142  20711697.379    20711696.061
  22556704.107    -9191491.47243  -7146199.90742  22556707.016    22556706.740
  21653490.414   -16122563.31644 -12541398.50042  21653492.041    21653491.189
  23814256.455    -3358956.57143  -2595285.21742  23814259.711    23814260.845
  22637295.568    15067412.10043  11742169.95242  22637297.897    22637296.969
  23127926.706    16860399.16443  13138038.98242  23127928.758    23127928.338
 03 12 23 23 23 30.0010000  0  7G 5G24G30G17G10G 4G 9
  20706894.235    -5322061.21644  -4131831.33342  20706896.081    20706894.101
  20714740.280     -165471.38244   -115731.65342  20714742.256    20714740.841
  22539844.766    -9280088.00443  -7215236.08142  22539847.728    22539847.382
  21642112.922   -16182352.35044 -12587987.33442  21642114.521    21642113.611
  23795766.385    -3456120.94243  -2670997.62542  23795769.762    23795770.793
  22653981.454    15155097.49343  11810496.23842  22653983.867    22653982.811
  23145616.480    16953359.71043  13210475.75642  23145618.512    23145618.056
 03 12 23 23 24  0.0010000  0  7G 5G24G30G17G10G 4G 9
  20701052.001    -5352761.83044  -4155753.86542  20701053.835    20701051.921
  20717881.295     -148965.08044   -102869.57242  20717883.331    20717881.801
  22523022.745    -9368489.10043  -7284119.96842  22523025.654    22523025.241
  21630810.456   -16241747.12244 -12634268.94942  21630812.066    21630811.116
  23777296.836    -3553177.35443  -2746625.89242  23777299.870    23777301.375
  22670718.239    15243049.80143  11879030.48942  22670720.607    22670719.541
  23163344.904    17046523.80743  13283071.14942  23163347.023    23163346.619
 03 12 23 23 24 30.0010000  0  7G 5G24G30G17G10G 4G 9
  20695293.744    -5383021.59344  -4179332.87942  20695295.525    20695293.648
  20721118.833     -131951.47544    -89612.19742  20721120.868    20721119.364
  22506238.646    -9456689.65643  -7352847.58142  22506241.729    22506241.151
  21619583.736   -16300743.70544 -12680240.28242  21619585.356    21619584.450
  23758849.097    -3650119.60443  -2822165.21742  23758851.799    23758853.679
  22687505.833    15331269.38343  11947773.02342  22687508.212    22687507.034
  23181112.179    17139891.37243  13355825.08842  23181114.313    23181113.874
 03 12 23 23 25  0.0010000  0  7G 5G24G30G17G10G 4G 9
  20689619.582    -5412839.75644  -4202567.79442  20689621.359    20689619.413
  20724452.470     -114432.86944    -75961.33042  20724454.488    20724453.044
  22489493.054    -9544688.51643  -7421418.03642  22489496.161    22489495.406
  21608432.810   -16359342.22444 -12725901.43642  21608434.444    21608433.511
  23740423.749    -3746945.72643  -2897614.04842  23740426.203    23740428.206
  22704343.470    15419752.40043  12016720.81342  22704345.913    22704344.827
  23198917.414    17233458.27443  13428734.35642  23198919.537    23198919.059
 03 12 23 23 25 30.0010000  0  7G 5G24G30G17G10G 4G 9
  20684029.568    -5442215.27044  -4225457.78342  20684031.374    20684029.399
  20727881.916      -96411.11144    -61918.39542  20727883.875    20727882.498
  22472786.186    -9632483.49943  -7489829.63342  22472789.319    22472788.359
  21597357.866   -16417541.63644 -12771251.60142  21597359.525    21597358.587
  23722020.937    -3843652.42643  -2972969.80142  23722023.325    23722025.474
  22721230.850    15508496.02343  12085871.70042  22721233.192    22721232.113
  23216759.956    17327221.17443  13501796.35042  23216762.074    23216761.601
 03 12 23 23 26  0.0010000  0  7G 5G24G30G17G10G 4G 9
  20678524.341    -5471145.11444  -4248000.49442  20678526.137    20678524.173
  20731407.130      -77886.08744    -47483.30942  20731409.082    20731407.722
  22456118.816    -9720070.93443  -7558079.49942  22456121.892    22456120.851
  21586359.250   -16475339.70544 -12816289.02342  21586360.954    21586360.047
  23703641.669    -3940235.13143  -3048228.94342  23703644.014    23703646.351
  22738167.450    15597499.01443  12155224.67442  22738169.889    22738168.934
  23234639.450    17421178.39643  13575009.76142  23234641.636    23234641.212
 03 12 23 23 26 30.0010000  0  7G 5G24G30G17G10G 4G 9
  20673103.470    -5499631.50544  -4270197.65642  20673105.260    20673103.381
  20735027.133      -58863.06244    -32660.16742  20735029.059    20735027.658
  22439490.487    -9807452.41243  -7626168.89242  22439493.551    22439492.434
  21575436.601   -16532738.91344 -12861015.64842  21575438.240    21575437.285
  23685286.036    -4036694.17743  -3123391.72242  23685288.267    23685290.610
  22755152.413    15686754.87743  12224774.68642  22755154.725    22755153.716
  23252554.702    17515323.20343  13648369.34042  23252556.922    23252556.494
 03 12 23 23 27  0.0010000  0  8G 5G24G30G17G10G 6G 4G 9
  20667768.290    -5527668.19244  -4292044.39642  20667770.041    20667768.179
  20738742.542      -39338.55144    -17446.25442  20738744.462    20738742.976
  22422902.739    -9894620.78843  -7694092.21242  22422905.834    22422904.710
  21564590.776   -16589733.60744 -12905427.06542  21564592.486    21564591.441
  23666955.555    -4133021.48343  -3198451.83742  23666957.729    23666959.825
  24656503.453
  22772186.011    15776265.62243  12294523.30442  22772188.268    22772186.983
  23270505.954    17609657.22443  13721876.36742  23270508.210    23270507.760
 03 12 23 23 27 30.0010000  0  8G 5G24G30G17G10G 6G 4G 9
  20662517.550    -5555260.73744  -4313545.05342  20662519.354    20662517.503
  20742551.656      -19321.58444     -1848.60742  20742553.598    20742552.031
  22406354.724    -9981581.12143  -7761853.44942  22406357.752    22406356.499
  21553820.808   -16646330.04944 -12949528.15142  21553822.460    21553821.421
  23648649.347    -4229221.04243  -3273412.38842  23648651.497    23648653.386
  24642902.308     -360458.18653   -273809.94552  24642903.674    24642906.449
  22789265.954    15866021.44443  12364462.88542  22789268.384    22789266.986
  23288491.031    17704169.96543  13795522.65742  23288493.420    23288493.029
 03 12 23 23 28  0.0010000  0  8G 5G24G30G17G10G 6G 4G 9
  20657353.693    -5582397.21944  -4334690.33342  20657355.455    20657353.605
  20746456.200        1196.82644     14139.77142  20746458.156    20746456.613
  22389848.608   -10068320.87543  -7829442.79042  22389851.677    22389850.427
  21543128.768   -16702517.14344 -12993310.26842  21543130.387    21543129.397
  23630369.966    -4325279.47843  -3348262.99242  23630372.098    23630373.840
  24629312.174     -431873.67843   -329458.22842  24629313.894    24629315.830
  22806394.050    15956029.69143  12434599.17442  22806396.554    22806394.993
  23306511.498    17798868.59043  13869313.79042  23306513.928    23306513.504
 03 12 23 23 28 30.0010000  0  8G 5G24G30G17G10G 6G 4G 9
  20652275.419    -5609083.19644  -4355484.57042  20652277.222    20652275.426
  20750454.498       22208.22944     30512.29542  20750456.472    20750455.066
  22373383.661   -10154844.51843  -7896863.74642  22373386.722    22373385.401
  21532513.560   -16758300.69644 -13036777.93042  21532515.155    21532514.177
  23612116.831    -4421200.25343  -3423006.33342  23612118.841    23612120.533
  24615731.241     -503240.62943   -385068.68942  24615733.010    24615735.155
  22823568.350    16046281.17643  12504924.98242  22823570.852    22823569.424
  23324565.634    17893743.45243  13943242.25042  23324567.974    23324567.477
 03 12 23 23 29  0.0010000  0  8G 5G24G30G17G10G 6G 4G 9
  20647283.580    -5635315.13044  -4375925.00442  20647285.390    20647283.616
  20754546.719       43713.39544     47269.56942  20754548.720    20754547.395
  22356960.797   -10241147.48743  -7964112.75342  22356963.863    22356962.380
  21521975.620   -16813677.74844 -13079928.83942  21521977.284    21521976.282
  23593890.796    -4516977.73843  -3497638.00742  23593892.811    23593894.514
  24602160.046     -574556.85743   -440639.60042  24602162.125    24602164.115
  22840788.917    16136775.19843  12575439.79742  22840791.396    22840789.915
  23342653.035    17988793.56643  14017307.26742  23342655.444    23342654.802
 03 12 23 23 29 30.0010000  0  8G 5G24G30G17G10G 6G 4G 9
  20642379.261    -5661087.66144  -4396007.46742  20642381.038    20642379.253
  20758733.336       65714.14744     64413.02542  20758735.296    20758733.978
  22340580.851   -10327224.18843  -8031185.44342  22340583.963    22340582.526
  21511515.966   -16868643.64744 -13122759.36942  21511517.607    21511516.603
  23575693.499    -4612605.06443  -3572152.70642  23575695.400    23575697.022
  24588599.057     -645818.83143   -496168.23642  24588601.453    24588603.150
  22858055.750    16227512.63143  12646144.26842  22858058.250    22858056.566
  23360773.934    18084019.34743  14091509.15542  23360776.350    23360775.499
 03 12 23 23 30  0.0010000  0  8G 5G24G30G17G10G 6G 4G 9
  20637561.535    -5686404.86944  -4415735.13042  20637563.343    20637561.517
  20763013.034       88203.73344     81937.39742  20763014.974    20763013.513
  22324243.360   -10413077.52643  -8098084.08442  22324246.449    22324245.077
  21501133.568   -16923202.94544 -13165273.06042  21501135.275    21501134.261
  23557524.259    -4708084.23843  -3646551.96742  23557526.223    23557527.918
  24575047.538     -717032.06643   -551658.89942  24575050.107    24575051.365
  22875367.433    16318485.63943  12717032.29642  22875369.955    22875368.205
  23378926.673    18179412.11443  14165841.16642  23378929.096    23378928.011
 03 12 23 23 30 30.0010000  0  8G 5G24G30G17G10G 6G 4G 9
  20632831.011    -5711263.83444  -4435105.72142  20632832.838    20632831.021
  20767385.588      111181.74044     99842.36942  20767387.562    20767386.022
  22307949.217   -10498703.86343  -8164805.84242  22307952.207    22307950.842
  21490829.030   -16977353.51944 -13207468.26842  21490830.732    21490829.662
  23539384.001    -4803411.01943  -3720832.50042  23539385.921    23539387.740
  24561505.100     -788195.53343   -607110.68442  24561507.679    24561509.159
  22892723.639    16409692.71543  12788102.73242  22892726.208    22892724.308
  23397110.835    18274970.44243  14240302.17142  23397113.278    23397112.134
 03 12 23 23 31  0.0010000  0  8G 5G24G30G17G10G 6G 4G 9
  20628187.974    -5735662.93244  -4454117.97342  20628189.815    20628188.049
  20771850.826      134646.94644    118126.97342  20771852.806    20771851.285
  22291698.657   -10584100.61243  -8231348.69242  22291701.601    22291700.299
  21480602.528   -17031094.01644 -13249343.93542  21480604.234    21480603.142
  23521273.758    -4898581.49843  -3794991.22442  23521275.652    23521277.169
  24547972.468     -859309.06443   -662523.57542  24547974.911    24547976.395
  22910123.811    16501131.42043  12859353.65142  22910126.438    22910124.600
  23415325.912    18370691.55943  14314890.03642  23415328.381    23415327.233
 03 12 23 23 31 30.0010000  0  8G 5G24G30G17G10G 6G 4G 9
  20623632.959    -5759599.83444  -4472770.08042  20623634.773    20623633.065
  20776408.576      158598.44444    136790.50242  20776410.542    20776409.095
  22275492.369   -10669265.01543  -8297710.50442  22275495.264    22275493.963
  21470454.285   -17084423.15944 -13290899.07242  21470455.967    21470454.954
  23503194.203    -4993591.95543  -3869025.28242  23503196.084    23503196.992
  24534449.539     -930372.24643   -717897.27042  24534451.987    24534453.143
  22927567.599    16592799.77743  12930783.50842  22927570.206    22927568.604
  23433571.525    18466572.68343  14389602.57842  23433573.944    23433572.911
 03 12 23 23 32  0.0010000  0  8G 5G24G30G17G10G 6G 4G 9
  20619166.270    -5783072.47244  -4491060.42942  20619168.117    20619166.391
  20781058.761      183035.34944    155832.26942  20781060.690    20781059.274
  22259330.972   -10754193.76243  -8363888.67542  22259333.833    22259332.524
  21460384.624   -17137339.22944 -13332132.33642  21460386.278    21460385.416
  23485145.548    -5088438.02243  -3942931.24542  23485147.638    23485148.248
  24520935.995    -1001384.32843   -773231.09642  24520938.568    24520939.426
  22945054.878    16684695.95043  13002390.91542  22945057.339    22945056.001
  23451847.248    18562611.85943  14464438.28042  23451849.592    23451848.585
 03 12 23 23 32 30.0010000  0  8G 5G24G30G17G10G 6G 4G 9
  20614787.642    -5806082.49944  -4508990.30342  20614789.455    20614787.712
  20785800.423      207952.94444    175248.59842  20785802.362    20785800.869
  22243214.077   -10838887.53943  -8429883.74142  22243217.041    22243215.824
  21450393.208   -17189844.39143 -13373045.40942  21450394.801    21450394.020
  23467128.226    -5183119.54143  -4016708.98242  23467130.555    23467130.935
  24507431.616    -1072348.32943   -828527.48842  24507433.960    24507435.063
  22962584.401    16776814.46843  13074171.55642  22962586.777    22962585.622
  23470151.939    18658802.90543  14539392.31042  23470154.243    23470153.071
 03 12 23 23 33  0.0010000  0  8G 5G24G30G17G10G 6G 4G 9
  20610497.786    -5828625.79744  -4526556.48742  20610499.625    20610497.824
  20790633.790      233352.61044    195040.56542  20790635.757    20790634.194
  22227143.082   -10923341.14543  -8495691.65142  22227146.015    22227144.835
  21440480.585   -17241935.03843 -13413635.48542  21440482.189    21440481.448
  23449143.505    -5277630.10743  -4090353.50542  23449145.981    23449146.108
  24493937.221    -1143261.46343   -883784.27742  24493939.463    24493940.658
  22980156.323    16869155.28943  13146125.42942  22980158.660    22980157.476
  23488485.477    18755145.60643  14614464.51742  23488487.795    23488486.416
 03 12 23 23 33 30.0010000  0  8G 5G24G30G17G10G 6G 4G 9
  20606296.739    -5850702.19944  -4543758.85942  20606298.612    20606296.799
  20795558.329      259231.24444    215205.75142  20795560.279    20795558.687
  22211117.853   -11007553.67643  -8561311.71642  22211120.838    22211119.684
  21430646.894   -17293611.72544 -13453902.99842  21430648.418    21430647.672
  23431191.656    -5371967.68043  -4163863.21942  23431194.216    23431193.947
  24480452.367    -1214125.47043   -939002.78242  24480454.673    24480455.749
  22997769.804    16961714.59143  13218249.53242  22997772.131    22997770.885
  23506846.853    18851635.54643  14689651.44442  23506849.296    23506847.832
 03 12 23 23 34  0.0010000  0  8G 5G24G30G17G10G 6G 4G 9
  20602185.115    -5872309.29244  -4560595.53642  20602186.924    20602185.095
  20800573.801      285588.10544    235743.57942  20800575.813    20800574.182
  22195139.267   -11091521.74043  -8626741.29042  22195142.251    22195141.093
  21420892.254   -17344872.72944 -13493846.59942  21420893.840    21420893.019
  23413272.978    -5466128.40243  -4237235.13642  23413275.685    23413275.495
  24466976.881    -1284939.47443   -994182.38842  24466979.296    24466980.200
  23015424.472    17054490.47843  13290542.40142  23015426.798    23015425.432
  23525235.778    18948270.40643  14764951.30142  23525238.288    23525236.856
 03 12 23 23 34 30.0010000  0  8G 5G24G30G17G10G 6G 4G 9
  20598163.186    -5893444.72344  -4577064.68742  20598165.011    20598163.156
  20805680.299      312422.65544    256653.63442  20805682.274    20805680.576
  22179207.825   -11175242.04043  -8691977.79342  22179210.741    22179209.625
  21411217.057   -17395716.13244 -13533464.80042  21411218.685    21411217.818
  23395388.947    -5560107.76343  -4310465.73142  23395391.447    23395391.725
  24453511.370    -1355702.40043  -1049322.19542  24453513.750    24453514.371
  23033120.068    17147481.64243  13363003.01142  23033122.383    23033120.961
  23543652.004    19045048.66943  14840362.89642  23543654.462    23543653.264
 03 12 23 23 35  0.0010000  0  8G 5G24G30G17G10G 6G 4G 9
  20594230.448    -5914111.63344  -4593168.75942  20594232.229    20594230.349
  20810876.388      339728.49344    277930.91942  20810878.379    20810876.672
  22163323.065   -11258716.84043  -8757022.99842  22163326.029    22163324.913
  21401620.584   -17446145.87044 -13572760.66342  21401622.200    21401621.294
  23377539.437    -5653907.09043  -4383556.03942  23377541.642    23377542.249
  24440054.397    -1426418.95743  -1104425.86142  24440056.960    24440057.149
  23050855.403    17240680.62943  13435625.56842  23050857.683    23050856.117
  23562094.019    19141962.10443  14915879.81742  23562096.407    23562095.482
 03 12 23 23 35 30.0010000  0  8G 5G24G30G17G10G 6G 4G 9
  20590387.765    -5934304.91644  -4608903.76742  20590389.588    20590387.599
  20816162.561      367507.87544    299577.18442  20816164.529    20816162.921
  22147486.073   -11341939.94243  -8821872.07942  22147489.119    22147487.965
  21392103.673   -17496157.25244 -13611730.53042  21392105.315    21392104.351
  23359725.680    -5747519.03543  -4456500.32042  23359727.502    23359728.263
  24426606.927    -1497085.46643  -1159490.56942  24426609.635    24426609.210
  23068630.594    17334088.82043  13508411.12542  23068632.813    23068631.162
  23580562.057    19239011.71443  14991502.85542  23580564.313    23580563.602
 03 12 23 23 36  0.0010000  0  8G 5G24G30G17G10G 6G 4G 9
  20586635.578    -5954022.51344  -4624268.11042  20586637.429    20586635.357
  20821538.605      395759.34044    321591.30842  20821540.503    20821539.055
  22131697.469   -11424908.47943  -8886522.80342  22131700.565    22131699.429
  21382666.553   -17545749.31243 -13650373.65242  21382668.194    21382667.196
  23341948.233    -5840939.98043  -4529295.76242  23341949.839    23341950.618
  24413169.114    -1567701.60043  -1214516.07142  24413171.869    24413170.878
  23086445.150    17427703.99843  13581357.97642  23086447.427    23086445.644
  23599055.408    19336194.84743  15067229.93142  23599057.735    23599057.052
 03 12 23 23 36 30.0010000  0  8G 5G24G30G17G10G 6G 4G 9
  20582973.457    -5973267.17344  -4639263.92842  20582975.290    20582973.153
  20827003.640      424477.75544    343969.28742  20827005.424    20827004.071
  22115957.198   -11507623.60043  -8950976.06242  22115960.238    22115959.138
  21373308.782   -17594924.50344 -13688691.94442  21373310.425    21373309.381
  23324207.138    -5934169.98643  -4601942.39642  23324208.769    23324209.455
  24399739.821    -1638271.01643  -1269505.13842  24399742.665    24399741.639
  23104297.814    17521520.06143  13654461.35842  23104300.153    23104298.244
  23617572.927    19433505.07343  15143056.04342  23617575.353    23617574.552
 03 12 23 23 37  0.0010000  0  8G 5G24G30G17G10G 6G 4G 9
  20579402.478    -5992032.21844  -4653886.01642  20579404.379    20579402.275
  20832558.133      453666.57644    366713.81942  20832559.937    20832558.507
  22100266.516   -11590077.81343  -9015226.01642  22100269.497    22100268.523
  21364031.414   -17643677.18744 -13726681.00542  21364033.025    21364031.976
  23306503.994    -6027200.78943  -4674433.82342  23306505.814    23306506.312
  24386320.278    -1708788.51043  -1324453.75342  24386323.040    24386322.278
  23122189.075    17615539.61443  13727723.29742  23122191.551    23122189.502
  23636114.967    19530944.37043  15218982.72042  23636117.407    23636116.628
 03 12 23 23 37 30.0010000  0  8G 5G24G30G17G10G 6G 4G 9
  20575922.567    -6010319.35844  -4668135.71142  20575924.380    20575922.327
  20838201.086      483320.62744    389820.87042  20838202.964    20838201.412
  22084625.275   -11672272.00843  -9079273.36242  22084628.193    22084627.337
  21354833.916   -17692010.08943 -13764342.96242  21354835.462    21354834.454
  23288838.684    -6120031.96643  -4746769.70342  23288840.636    23288841.138
  24372910.408    -1779257.34743  -1379364.40942  24372912.923    24372912.197
  23140118.097    17709756.88743  13801139.29942  23140120.454    23140118.380
  23654680.531    19628506.72543  15295005.29342  23654682.804    23654682.087
 03 12 23 23 38  0.0010000  0  8G 5G24G30G17G10G 6G 4G 9
  20572534.021    -6028126.06844  -4682011.04642  20572535.809    20572533.778
  20843932.507      513439.52344    413290.14042  20843934.396    20843932.783
  22069034.386   -11754202.40443  -9143115.15942  22069037.184    22069036.374
  21345716.746   -17739920.97444 -13801676.07642  21345718.263    21345717.269
  23271212.098    -6212658.95843  -4818946.46342  23271214.363    23271214.730
  24359510.182    -1849676.37543  -1434236.24142  24359512.641    24359511.634
  23158084.429    17804170.48843  13874708.30042  23158086.829    23158084.553
  23673268.816    19726190.05443  15371122.15142  23673271.159    23673270.571
 03 12 23 23 38 30.0010000  0  8G 5G24G30G17G10G 6G 4G 9
  20569236.903    -6045452.25444  -4695511.94642  20569238.698    20569236.623
  20849751.902      544020.80344    437119.71142  20849753.800    20849752.180
  22053493.805   -11835867.85643  -9206750.49442  22053496.528    22053495.891
  21336679.799   -17787410.26544 -13838680.67342  21336681.363    21336680.365
  23253624.980    -6305079.38643  -4890962.26142  23253627.338    23253627.667
  24346119.038    -1920046.65243  -1489070.04742  24346121.546    24346120.557
  23176087.596    17898776.97643  13948427.58642  23176089.973    23176087.482
  23691879.508    19823990.46743  15447330.23142  23691881.754    23691881.325
 03 12 23 23 39  0.0010000  0  8G 5G24G30G17G10G 6G 4G 9
  20566031.137    -6062298.13544  -4708638.58442  20566032.961    20566030.896
  20855658.645      575060.91344    461306.81142  20855660.510    20855658.921
  22038003.994   -11917267.07443  -9270178.39542  22038006.651    22038005.987
  21327722.927   -17834478.70544 -13875357.33342  21327724.535    21327723.530
  23236077.270    -6397291.33243  -4962815.60542  23236079.646    23236080.295
  24332736.803    -1990369.72343  -1543867.04342  24332739.219    24332738.724
  23194126.717    17993572.37343  14022294.08342  23194129.165    23194126.565
  23710511.733    19921903.53743  15523626.07642  23710513.796    23710513.537
 03 12 23 23 39 30.0010000  0  8G 5G24G30G17G10G 6G 4G 9
  20562917.186    -6078661.77844  -4721389.45042  20562918.982    20562916.967
  20861652.388      606558.42244    485850.32342  20861654.265    20861652.719
  22022565.345   -11998397.51543  -9333396.85142  22022567.985    22022567.357
  21318846.349   -17881125.31344 -13911705.29742  21318847.985    21318846.911
  23218570.275    -6489291.05643  -5034503.59142  23218572.322    23218573.260
  24319363.804    -2060645.29443  -1598627.05342  24319366.146    24319365.769
  23212201.209    18088554.33243  14096305.96442  23212203.715    23212201.162
  23729164.999    20019926.42843  15600007.52442  23729166.972    23729166.644
 03 12 23 23 40  0.0010000  0  8G 5G24G30G17G10G 6G 4G 9
  20559896.195    -6094537.16944  -4733759.86242  20559897.985    20559895.981
  20867733.789      638516.35544    510752.60942  20867735.668    20867734.146
  22007179.289   -12079251.74443  -9396400.09242  22007181.890    22007181.166
  21310051.064   -17927344.43844 -13947720.15642  21310052.734    21310051.595
  23201105.231    -6581070.37943  -5106019.79442  23201107.227    23201108.087
  24306000.467    -2130868.56743  -1653346.26842  24306003.039    24306002.814
  23230311.707    18183725.53743  14170465.31542  23230314.189    23230311.750
  23747839.686    20118061.51143  15676476.38042  23747841.617    23747841.139
 03 12 23 23 40 30.0010000  0  8G 5G24G30G17G10G 6G 4G 9
  20556967.337    -6109928.33644  -4745752.95742  20556969.129    20556967.110
  20873901.463      670927.39044    536007.97242  20873903.323    20873901.807
  21991845.234   -12159832.92643  -9459190.56842  21991847.801    21991847.031
  21301336.187   -17973140.99744 -13983405.74742  21301337.876    21301336.729
  23183681.781    -6672631.45043  -5177365.92842  23183683.777    23183684.401
  24292646.249    -2201045.00343  -1708028.96342  24292649.056    24292648.572
  23248456.351    18279077.73743  14244765.72742  23248459.019    23248456.741
  23766533.905    20216300.20643  15753025.97842  23766536.012    23766535.404
 03 12 23 23 41  0.0010000  0  8G 5G24G30G17G10G 6G 4G 9
  20554131.177    -6124832.31344  -4757366.42242  20554132.976    20554130.941
  20880155.380      703791.90244    561616.69742  20880157.264    20880155.765
  21976563.910   -12240136.59043  -9521764.80842  21976566.500    21976565.643
  21292702.242   -18018512.55744 -14018760.17242  21292703.920    21292702.792
  23166300.727    -6763968.70943  -5248537.69542  23166302.798    23166303.293
  24279301.160    -2271172.70843  -1762673.74942  24279303.886    24279303.370
  23266635.632    18374610.43443  14319206.76242  23266638.099    23266635.889
  23785247.761    20314641.26443  15829655.34342  23785249.796    23785249.196
 03 12 23 23 41 30.0010000  0  8G 5G24G30G17G10G 6G 4G 9
  20551388.140    -6139246.98144  -4768598.60942  20551389.973    20551387.854
  20886495.320      737108.88344    587577.99242  20886497.247    20886495.809
  21961336.117   -12320159.59743  -9584120.35342  21961338.683    21961337.723
  21284149.462   -18063457.62744 -14053782.26242  21284151.114    21284149.984
  23148963.000    -6855078.09143  -5319531.86542  23148965.234    23148965.520
  24265965.031    -2341250.93443  -1817279.99242  24265967.883    24265967.920
  23284849.060    18470321.91743  14393787.10842  23284851.414    23284849.145
  23803980.558    20413082.50043  15906362.77242  23803982.645    23803982.029
 03 12 23 23 42  0.0010000  0  8G 5G24G30G17G10G 6G 4G 9
  20548738.319    -6153171.88544  -4779449.16642  20548740.148    20548737.988
  20892920.830      770875.60444    613889.72742  20892922.753    20892921.387
  21946161.823   -12399900.45443  -9646256.02542  21946164.478    21946163.418
  21275677.761   -18107976.60844 -14088472.34042  21275679.430    21275678.244
  23131669.083    -6945957.36743  -5390346.74042  23131671.358    23131671.525
  24252638.403    -2411280.76143  -1871848.49742  24252641.147    24252641.828
  23303095.861    18566208.82243  14468504.17442  23303098.285    23303095.764
  23822731.623    20511620.16443  15983145.33042  23822733.734    23822733.269
 03 12 23 23 42 30.0010000  0  8G 5G24G30G17G10G 6G 4G 9
  20546181.964    -6166605.57044  -4789916.95042  20546183.802    20546181.626
  20899431.777      805090.66844    640550.82442  20899433.625    20899432.318
  21931042.028   -12479356.01743  -9708169.40142  21931044.652    21931043.455
  21267287.429   -18152068.14944 -14122829.34842  21267289.145    21267287.800
  23114419.730    -7036602.38143  -5460979.08242  23114421.925    23114422.103
  24239321.519    -2481261.42843  -1926378.72542  24239324.175    24239324.943
  23321375.401    18662269.37243  14543356.53142  23321377.977    23321375.605
  23841500.543    20610251.74143  16060001.07642  23841502.645    23841502.266
 03 12 23 23 43  0.0010000  0  8G 5G24G30G17G10G 6G 4G 9
  20543719.041    -6179548.48044  -4800002.31342  20543720.860    20543718.687
  20906027.403      839750.73844    667558.67942  20906029.254    20906027.902
  21915976.590   -12558525.66343  -9769859.98142  21915979.256    21915977.895
  21258978.112   -18195733.56044 -14156854.30242  21258979.902    21258978.397
  23097215.320    -7127011.44043  -5531427.54842  23097217.352    23097217.724
  24226013.625    -2551194.83243  -1980872.15542  24226016.081    24226016.761
  23339687.106    18758499.29543  14618340.90342  23339689.760    23339687.805
  23860286.537    20708972.53743  16136926.32742  23860288.479    23860288.162
 03 12 23 23 43 30.0010000  0  8G 5G24G30G17G10G 6G 4G 9
  20541350.260    -6191996.80144  -4809702.28342  20541352.038    20541349.851
  20912707.845      874856.62744    694913.93942  20912709.758    20912708.321
  21900966.450   -12637404.02043  -9831323.58242  21900969.193    21900967.793
  21250750.591   -18238969.31044 -14190544.45842  21250752.369    21250750.768
  23080057.132    -7217178.37343  -5601687.35142  23080059.042    23080059.546
  24212715.015    -2621078.18643  -2035326.57242  24212717.442    24212718.250
  23358031.009    18854898.87443  14693457.43042  23358033.660    23358032.322
  23879089.601    20807782.77443  16213921.28142  23879091.471    23879090.996
 03 12 23 23 44  0.0010000  0  8G 5G24G30G17G10G 6G 4G 9
  20539075.171    -6203952.41344  -4819018.32542  20539076.958    20539074.776
  20919472.153      910403.41144    722612.75742  20919474.105    20919472.660
  21886011.578   -12715991.79043  -9892560.75642  21886014.412    21886012.903
  21242604.284   -18281778.14744 -14223901.95842  21242606.071    21242604.473
  23062945.069    -7307102.84143  -5671758.23442  23062946.938    23062947.467
  24199425.484    -2690914.56243  -2089744.40442  24199427.909    24199428.845
  23376406.565    18951462.52743  14768701.83442  23376409.015    23376407.844
  23897908.345    20906676.17243  16290981.03342  23897910.372    23897909.715
 03 12 23 23 44 30.0010000  0  8G 5G24G30G17G10G 6G 4G 9
  20536894.004    -6215414.59544  -4827949.87842  20536895.800    20536893.555
  20926319.903      946388.66244    750653.23842  20926321.879    20926320.431
  21871112.535   -12794287.16043  -9953570.07842  21871115.273    21871113.709
  21234539.280   -18324160.15244 -14256926.86142  21234540.994    21234539.469
  23045879.640    -7396781.97643  -5741637.93142  23045881.520    23045881.924
  24186144.889    -2760704.56243  -2144126.10842  24186147.251    24186148.133
  23394812.881    19048187.37943  14844071.84142  23394815.209    23394813.930
  23916742.364    21005649.20543  16368102.82542  23916744.383    23916743.739
 03 12 23 23 45  0.0010000  0  8G 5G24G30G17G10G 6G 4G 9
  20534807.501    -6226379.38144  -4836493.85342  20534809.287    20534807.017
  20933251.348      982813.53944    779036.29142  20933253.287    20933251.893
  21856270.155   -12872284.48843 -10014347.16842  21856272.900    21856271.191
  21226556.193   -18366111.60144 -14289616.27142  21226557.900    21226556.362
  23028862.039    -7486209.32043  -5811321.45342  23028863.974    23028864.288
  24172873.788    -2830444.99743  -2198469.23442  24172875.967    24172876.877
  23413249.792    19145073.93143  14919567.83942  23413252.267    23413250.749
  23935591.367    21104702.00343  16445286.77042  23935593.468    23935593.005
 03 12 23 23 45 30.0010000  0  8G 5G24G30G17G10G 6G 4G 9
  20532815.880    -6236845.41944  -4844649.18842  20532817.678    20532815.392
  20940265.974     1019675.95944    807760.28742  20940267.944    20940266.604
  21841484.912   -12949981.54043 -10074890.26542  21841487.667    21841485.889
  21218655.020   -18407632.24944 -14321969.99042  21218656.733    21218655.228
  23011892.915    -7575381.84943  -5880806.44642  23011894.818    23011895.208
  24159611.703    -2900136.01243  -2252773.87442  24159613.884    24159614.790
  23431717.060    19242119.75643  14995187.95242  23431719.483    23431717.745
  23954454.958    21203831.43943  16522530.43842  23954457.175    23954456.878
 03 12 23 23 46  0.0010000  0  8G 5G24G30G17G10G 6G 4G 9
  20530919.147    -6246812.69744  -4852415.88042  20530920.957    20530918.698
  20947363.376     1056973.13744    836823.05642  20947365.300    20947364.032
  21826756.927   -13027376.71343 -10135198.13342  21826759.730    21826757.993
  21210835.801   -18448722.34344 -14353988.21442  21210837.490    21210836.044
  22994972.743    -7664297.03143  -5950090.92742  22994974.578    22994975.074
  24146358.970    -2969778.55743  -2307040.73642  24146361.214    24146362.032
  23450213.702    19339321.49643  15070929.54642  23450216.243    23450214.520
  23973332.546    21303033.65443  16599830.81142  23973334.724    23973334.632
 03 12 23 23 46 30.0010000  0  8G 5G24G30G17G10G 6G 4G 9
  20529117.189    -6256281.79844  -4859794.38742  20529119.004    20529116.787
  20954542.798     1094701.60444    866221.89242  20954544.764    20954543.526
  21812086.654   -13104468.87043 -10195269.88642  21812089.477    21812087.745
  21203098.436   -18489382.95944 -14385671.77642  21203100.082    21203098.585
  22978102.070    -7752952.97943  -6019173.40142  22978103.902    22978104.260
  24133115.160    -3039374.06043  -2361270.93142  24133117.362    24133118.417
  23468739.482    19436675.38543  15146789.71742  23468741.987    23468740.400
  23992223.048    21402304.40643  16677184.57242  23992225.186    23992225.361
 03 12 23 23 47  0.0010000  0  8G 5G24G30G17G10G 6G 4G 9
  20527410.636    -6265249.53544  -4866782.21942  20527412.449    20527410.256
  20961804.297     1132861.05344    895956.55942  20961806.275    20961805.014
  21797474.871   -13181254.17443 -10255102.53142  21797477.607    21797475.929
  21195443.104   -18529612.01244 -14417019.05942  21195444.810    21195443.234
  22961281.739    -7841344.68543  -6088049.98142  22961283.532    22961283.695
  24119880.647    -3108921.01443  -2415463.31542  24119882.904    24119884.079
  23487294.023    19534180.34943  15222767.57942  23487296.371    23487295.159
  24011126.513    21501642.38443  16754590.72742  24011128.557    24011128.790
 03 12 23 23 47 30.0010000  0  8G 5G24G30G17G10G 6G 4G 9
  20525799.445    -6273716.10044  -4873379.53442  20525801.249    20525799.080
  20969147.267     1171448.85244    926025.00442  20969149.279    20969148.003
  21782921.698   -13257731.00843 -10314694.81142  21782924.450    21782922.852
  21187869.700   -18569410.16944 -14448030.57642  21187871.471    21187869.848
  22944511.989    -7929469.63143  -6156718.71042  22944513.831    22944514.019
  24106655.377    -3178420.38343  -2469618.62542  24106657.524    24106658.684
  23505876.768    19631833.32943  15298860.81742  23505879.170    23505878.062
  24030042.013    21601043.65143  16832046.20542  24030044.033    24030044.136
 03 12 23 23 48  0.0010000  0  8G 5G24G30G17G10G 6G 4G 9
  20524283.520    -6281681.95844  -4879586.68842  20524285.314    20524283.233
  20976571.126     1210461.69444    956424.64842  20976573.157    20976571.843
  21768427.535   -13333898.26643 -10374045.87142  21768430.306    21768428.726
  21180378.194   -18608778.04144 -14478706.80942  21180379.971    21180378.325
  22927793.556    -8017325.74843  -6225177.96642  22927795.406    22927795.506
  24093439.032    -3247873.36643  -2523737.78742  24093441.286    24093442.075
  23524487.248    19729630.52243  15375066.41542  23524489.566    23524488.308
  24048968.805    21700504.08743  16909547.79142  24048970.811    24048970.712
 03 12 23 23 48 30.0010000  0  8G 5G24G30G17G10G 6G 4G 9
  20522863.790    -6289142.80044  -4885400.32542  20522865.512    20522863.520
  20984076.015     1249900.44944    987156.15642  20984078.027    20984076.713
  21753993.465   -13409750.42743 -10433151.39942  21753996.169    21753994.549
  21172969.153   -18647712.57944 -14509045.37742  21172970.917    21172969.257
  22911127.501    -8104906.65343  -6293422.77242  22911129.340    22911129.284
  24080231.827    -3317276.93543  -2577818.41942  24080234.269    24080234.919
  23543124.985    19827572.41543  15451384.73942  23543127.390    23543125.983
  24067906.747    21800023.77643  16987095.53242  24067908.693    24067908.625
 03 12 23 23 49  0.0010000  0  8G 5G24G30G17G10G 6G 4G 9
  20521540.056    -6296098.63644  -4890820.44642  20521541.785    20521539.923
  20991661.476     1289762.37644   1018217.40442  20991663.419    20991662.142
  21739619.500   -13485285.82743 -10492010.09842  21739622.293    21739620.639
  21165642.562   -18686213.83244 -14539046.32142  21165644.307    21165642.691
  22894514.194    -8192209.77943  -6361451.12242  22894516.074    22894515.894
  24067033.976    -3386631.67643  -2631860.99342  24067036.320    24067037.284
  23561789.600    19925656.18543  15527813.63442  23561792.066    23561790.421
  24086855.395    21899599.08643  17064686.60642  24086857.274    24086857.199
 03 12 23 23 49 30.0010000  0  8G 5G24G30G17G10G 6G 4G 9
  20520313.294    -6302545.39644  -4895843.88742  20520314.968    20520313.201
  20999327.718     1330048.51444   1049609.20242  20999329.568    20999328.317
  21725306.923   -13560499.22643 -10550617.89142  21725309.686    21725307.982
  21158399.103   -18724278.70144 -14568707.22942  21158400.779    21158399.200
  22877954.961    -8279228.67143  -6429257.97142  22877956.869    22877956.599
  24053846.016    -3455934.93443  -2685863.44042  24053848.386    24053849.375
  23580480.962    20023881.91943  15604353.15442  23580483.620    23580482.109
  24105814.475    21999229.78943  17142320.87342  24105816.470    24105816.342
 03 12 23 23 50  0.0010000  0  8G 5G24G30G17G10G 6G 4G 9
  20519181.692    -6308492.07744  -4900477.65842  20519183.340    20519181.595
  21007072.377     1370746.93844   1081322.26042  21007074.231    21007072.973
  21711054.084   -13635397.86043 -10608980.41542  21711056.896    21711055.175
  21151236.776   -18761916.66944 -14598035.48042  21151238.488    21151236.970
  22861448.667    -8365969.93943  -6496848.48342  22861450.549    22861450.127
  24040666.197    -3525196.33743  -2739833.27842  24040668.608    24040669.264
  23599197.626    20122237.70943  15680993.98942  23599200.071    23599198.725
  24124781.785    22098903.29943  17219988.47942  24124783.781    24124783.693
 03 12 23 23 50 30.0010000  0  8G 5G24G30G17G10G 6G 4G 9
  20518146.871    -6313930.02744  -4904715.01742  20518148.544    20518146.821
  21014896.645     1411863.70244   1113361.28842  21014898.530    21014897.205
  21696863.160   -13709971.42443 -10667089.63942  21696865.930    21696864.215
  21144157.250   -18799119.77344 -14627024.87942  21144158.944    21144157.457
  22844997.266    -8452422.60443  -6564214.10842  22844999.149    22844998.602
  24027495.731    -3594408.07043  -2793764.38442  24027498.288    24027498.620
  23617939.971    20220729.01143  15757740.44742  23617942.375    23617941.164
  24143758.202    22198624.65643  17297693.35142  24143760.262    24143760.129
 03 12 23 23 51  0.0010000  0  8G 5G24G30G17G10G 6G 4G 9
  20517208.856    -6318859.19844  -4908555.92242  20517210.532    20517208.846
  21022800.024     1453395.80744   1145723.96142  21022801.912    21022800.447
  21682734.453   -13784218.55443 -10724944.51342  21682737.168    21682735.374
  21137160.414   -18835888.13044 -14655675.51542  21137162.127    21137160.646
  22828601.142    -8538584.15143  -6631352.88342  22828603.129    22828602.423
  24014334.374    -3663571.04143  -2847657.50042  24014337.028    24014337.231
  23636707.640    20319352.52243  15834589.91442  23636709.930    23636708.923
  24162742.969    22298390.05743  17375432.54942  24162745.033    24162744.915
 03 12 23 23 51 30.0010000  0  8G 5G24G30G17G10G 6G 4G 9
  20516368.170    -6323277.27144  -4911998.56942  20516369.852    20516368.129
  21030782.200     1495342.40544   1178409.60842  21030784.122    21030782.543
  21668668.504   -13858135.59743 -10782542.16242  21668671.236    21668669.348
  21130246.512   -18872220.78344 -14683986.64042  21130248.188    21130246.726
  22812261.313    -8624450.22243  -6698261.40742  22812263.342    22812262.557
  24001182.478    -3732684.32143  -2901511.90942  24001185.203    24001185.203
  23655499.813    20418106.85743  15911541.31942  23655502.266    23655501.715
  24181735.681    22398197.50243  17453204.51242  24181737.729    24181737.871
 03 12 23 23 52  0.0010000  0  8G 5G24G30G17G10G 6G 4G 9
  20515624.316    -6327186.69544  -4915044.86642  20515625.989    20515624.211
  21038842.320     1537698.45044   1211414.30342  21038844.225    21038842.606
  21654665.230   -13931723.04943 -10839882.99242  21654668.007    21654666.056
  21123415.015   -18908120.17044 -14711960.15542  21123416.664    21123415.236
  22795977.762    -8710020.14543  -6764939.16542  22795979.830    22795979.079
  23988039.667    -3801750.87843  -2955329.87442  23988042.341    23988042.333
  23674315.933    20516987.03343  15988590.77442  23674318.386    23674318.328
  24200735.323    22498041.07243  17531004.63642  24200737.344    24200737.685
 03 12 23 23 52 30.0010000  0  8G 5G24G30G17G10G 6G 4G 9
  20514977.963    -6330583.26544  -4917691.53742  20514979.698    20514977.862
  21046980.492     1580464.84244   1244738.74142  21046982.403    21046980.777
  21640725.851   -14004975.33343 -10896962.65042  21640728.588    21640726.590
  21116666.582   -18943583.09544 -14739593.56842  21116668.214    21116666.796
  22779751.723    -8795287.77643  -6831381.36642  22779753.767    22779753.130
  23974906.181    -3870767.43443  -3009108.89642  23974908.955    23974908.848
  23693155.960    20615993.73743  16065738.85342  23693158.525    23693158.741
  24219741.990    22597921.19243  17608833.22742  24219743.936    24219744.513
 03 12 23 23 53  0.0010000  0  8G 5G24G30G17G10G 6G 4G 9
  20514428.659    -6333469.69144  -4919940.69142  20514430.436    20514428.570
  21055195.737     1623636.13744   1278378.69442  21055197.658    21055196.047
  21626849.895   -14077893.64643 -10953782.07042  21626852.695    21626850.694
  21110000.622   -18978612.81244 -14766889.41842  21110002.200    21110000.826
  22763583.128    -8880253.32343  -6897588.17842  22763585.149    22763584.541
  23961781.609    -3939737.58743  -3062851.78642  23961784.296    23961784.024
  23712019.087    20715120.73043  16142980.65742  23712021.545    23712021.813
  24238754.336    22697831.38843  17686685.26142  24238756.198    24238756.911
 03 12 23 23 53 30.0010000  0  8G 5G24G30G17G10G 6G 4G 9
  20513977.108    -6335842.45944  -4921789.59242  20513978.909    20513977.007
  21063488.106     1667212.70744   1312334.44642  21063490.064    21063488.439
  21613038.470   -14150473.03143 -11010337.38842  21613041.242    21613039.287
  21103417.645   -19013206.44244 -14793845.46042  21103419.186    21103417.877
  22747473.297    -8964910.83543  -6963554.96542  22747475.207    22747474.578
  23948666.361    -4008658.59243  -3116556.37942  23948669.026    23948668.548
  23730905.399    20814368.73543  16220316.72742  23730907.694    23730907.922
  24257772.407    22797771.45843  17764560.56642  24257774.221    24257774.976
 03 12 23 23 54  0.0010000  0  8G 5G24G30G17G10G 6G 4G 9
  20513622.452    -6337706.13444  -4923241.79742  20513624.263    20513622.294
  21071856.189     1711187.50444   1346600.50942  21071858.186    21071856.639
  21599291.064   -14222716.11943 -11066630.65442  21599293.807    21599291.879
  21096916.689   -19047368.97344 -14820465.58642  21096918.209    21096916.939
  22731421.806    -9049262.26743  -7029283.25742  22731423.578    22731422.967
  23935559.679    -4077535.63343  -3170226.73542  23935562.386    23935561.670
  23749813.459    20913729.86943  16297740.97242  23749815.662    23749815.731
  24276794.473    22897733.29743  17842452.83442  24276796.417    24276797.124
 03 12 23 23 54 30.0010000  0  8G 5G24G30G17G10G 6G 4G 9
  20513366.409    -6339051.69544  -4924290.28042  20513368.214    20513366.199
  21080301.319     1755566.90844   1381181.84442  21080303.277    21080301.814
  21585609.714   -14294611.90043 -11122653.29242  21585612.515    21585610.522
  21090499.468   -19081091.65744 -14846742.97242  21090500.966    21090499.685
  22715430.747    -9133295.87043  -7094763.88742  22715432.519    22715431.831
  23922462.734    -4146360.22343  -3223856.20042  23922465.641    23922464.874
  23768744.060    21013210.55943  16375258.36442  23768746.167    23768746.501
  24295821.932    22997722.48443  17920366.42042  24295823.742    24295824.375
 03 12 23 23 55  0.0010000  0  8G 5G24G30G17G10G 6G 4G 9
  20513207.882    -6339884.68744  -4924939.35242  20513209.693    20513207.608
  21088821.817     1800342.19244   1416071.66242  21088823.730    21088822.299
  21571993.736   -14366164.73243 -11178408.69642  21571996.536    21571994.398
  21084164.726   -19114380.90944 -14872682.62142  21084166.221    21084164.926
  22699499.581    -9217014.88743  -7159999.38242  22699501.399    22699500.622
  23909374.586    -4215138.88343  -3277449.89542  23909377.486    23909376.779
  23787695.703    21112801.86443  16452861.95842  23787697.790    23787698.169
  24314852.848    23097729.62343  17998293.98342  24314854.570    24314854.979
 03 12 23 23 55 30.0010000  0  8G 5G24G30G17G10G 6G 4G 9
  20513148.225    -6340197.61744  -4925183.17742  20513150.062    20513147.984
  21097418.426     1845517.89144   1451273.47942  21097420.322    21097418.957
  21558444.680   -14437365.60843 -11233889.84842  21558447.521    21558445.250
  21077913.656   -19147230.41444 -14898279.60942  21077915.115    21077913.846
  22683629.943    -9300409.51643  -7224982.11642  22683631.884    22683631.030
  23896296.444    -4283865.18843  -3331002.78442  23896299.321    23896298.595
  23806668.477    21212508.13243  16530555.14142  23806671.043    23806671.702
  24333887.709    23197758.48343  18076238.48042  24333889.668    24333889.593
 03 12 23 23 56  0.0010000  0  8G 5G24G30G17G10G 6G 4G 9
  20513186.140    -6339998.21544  -4925027.78442  20513187.906    20513185.838
  21106089.347     1891084.03044   1486779.54142  21106091.205    21106089.920
  21544961.398   -14508220.06043 -11289101.06142  21544964.337    21544962.000
  21071744.876   -19179647.51844 -14923539.66442  21071746.328    21071745.067
  22667821.278    -9383484.22143  -7289715.57542  22667823.203    22667822.298
  23883226.819    -4352546.94543  -3384520.93842  23883229.654    23883228.801
  23825661.919    21312318.94243  16608329.76842  23825664.070    23825665.154
  24352924.809    23297798.22643  18154191.45242  24352926.840    24352926.261
 03 12 23 23 56 30.0010000  0  8G 5G24G30G17G10G 6G 4G 9
  20513322.528    -6339281.45244  -4924469.25342  20513324.256    20513322.210
  21114834.991     1937042.70644   1522591.47842  21114836.777    21114835.561
  21531545.446   -14578721.39143 -11344037.11742  21531548.313    21531545.956
  21065659.194   -19211628.01044 -14948459.50142  21065660.702    21065659.340
  22652074.955    -9466231.54443  -7354193.93142  22652076.829    22652075.815
  23870166.389    -4421179.63943  -3438000.88042  23870169.226    23870168.358
  23844675.872    21412236.52043  16686187.59642  23844677.868    23844679.002
  24371964.201    23397850.13943  18232153.90342  24371966.220    24371965.309
 03 12 23 23 57  0.0010000  0  8G 5G24G30G17G10G 6G 4G 9
  20513557.275    -6338047.62644  -4923507.81242  20513559.017    20513556.993
  21123654.628     1983390.18244   1558706.38742  21123656.408    21123655.144
  21518196.846   -14648868.61843 -11398697.24742  21518199.700    21518197.331
  21059656.388   -19243173.14344 -14973040.09742  21059657.943    21059656.452
  22636391.121    -9548649.75643  -7418415.84742  22636393.009    22636391.920
  23857114.928    -4489764.86043  -3491443.82142  23857117.701    23857117.077
  23863709.720    21512256.94643  16764125.55342  23863711.467    23863712.137
  24391005.059    23497910.17143  18310122.67042  24391007.195    24391005.990
 03 12 23 23 57 30.0010000  0  8G 5G24G30G17G10G 6G 4G 9
  20513890.862    -6336294.60944  -4922141.80842  20513892.576    20513890.606
  21132548.218     2030126.30144   1595124.14742  21132550.027    21132548.654
  21504916.400   -14718657.60743 -11453078.22142  21504919.286    21504916.916
  21053736.671   -19274281.19044 -14997280.11242  21053738.267    21053736.766
  22620771.050    -9630733.79343  -7482377.36742  22620772.799    22620771.687
  23844072.821    -4558300.98043  -3544848.48842  23844075.567    23844075.205
  23882762.813    21612379.87943  16842143.39442  23882764.605    23882764.643
  24410047.240    23597977.23543  18388096.91842  24410049.473    24410048.128
 03 12 23 23 58  0.0010000  0  8G 5G24G30G17G10G 6G 4G 9
  20514323.065    -6334023.18344  -4920371.84342  20514324.785    20514322.846
  21141515.011     2077247.36944   1631841.87742  21141516.917    21141515.458
  21491704.346   -14788087.38344 -11507179.28642  21491707.242    21491704.897
  21047899.902   -19304953.49144 -15021180.58542  21047901.482    21047899.996
  22605214.933    -9712481.78943  -7546077.05042  22605216.686    22605215.621
  23831039.848    -4626789.18743  -3598215.82142  23831042.517    23831042.271
  23901834.407    21712601.40843  16920238.04442  23901836.484    23901836.028
  24429089.891    23698046.89043  18466073.21542  24429092.200    24429090.814
 03 12 23 23 58 30.0010000  0  8G 5G24G30G17G10G 6G 4G 9
  20514854.733    -6331229.35744  -4918194.81542  20514856.427    20514854.508
  21150555.438     2124754.82244   1668860.68542  21150557.341    21150555.815
  21478561.730   -14857152.00243 -11560995.81442  21478564.672    21478562.347
  21042146.741   -19335186.41244 -15044738.68642  21042148.313    21042146.849
  22589724.082    -9793887.10443  -7609509.70942  22589725.843    22589724.866
  23818016.678    -4695225.85443  -3651542.99342  23818019.402    23818019.085
  23920924.980    21812922.87243  16998410.61142  23920927.338    23920926.362
  24448133.217    23798119.96443  18544052.14742  24448135.433    24448134.226
 03 12 23 23 59  0.0010000  0  8G 5G24G30G17G10G 6G 4G 9
  20515485.049    -6327917.26244  -4915613.94242  20515486.743    20515484.776
  21159668.029     2172642.04844   1706175.41842  21159669.968    21159668.457
  21465488.257   -14925853.60643 -11614529.47542  21465491.157    21465488.849
  21036476.363   -19364984.45944 -15067957.92342  21036477.906    21036476.447
  22574297.972    -9874951.07343  -7672676.38742  22574299.846    22574299.070
  23805002.380    -4763615.62743  -3704833.62142  23805005.052    23805004.942
  23940033.099    21913337.42043  17076655.66742  23940035.549    23940034.862
  24467175.731    23898188.76943  18622027.77742  24467177.849    24467176.901
